2016 Cux-Wetter.de -Die Nutzung der Wetterdaten nur mit ausdrcklicher Genehmigung
Wetterdaten: Donnerstag, 03.03.2016
Datum Zeit Temp. A. Feuchte A. Luftdruck Regen Wind Richtung Richtung Sonnenschein Solar Taupunkt Windchill Windben
03.03.2016 00:00 2,8 C 96 % 994,7 hPa 0,0 l/m 5,7 km/h (2 Bft) O-SO 102 0 min 0 W/m 2,2 C 2,8 C 9,7 km/h (2 Bft)
03.03.2016 00:03 2,8 C 96 % 994,6 hPa 0,0 l/m 4,3 km/h (1 Bft) S-SO 154 0 min 0 W/m 2,2 C 2,8 C 6,4 km/h (2 Bft)
03.03.2016 00:06 2,8 C 96 % 994,6 hPa 0,0 l/m 2,8 km/h (1 Bft) S-SO 152 0 min 0 W/m 2,2 C 2,8 C 9,7 km/h (2 Bft)
03.03.2016 00:09 2,8 C 96 % 994,6 hPa 0,0 l/m 4,2 km/h (1 Bft) SO 127 0 min 0 W/m 2,2 C 2,8 C 11,3 km/h (2 Bft)
03.03.2016 00:12 2,8 C 96 % 994,5 hPa 0,0 l/m 3,9 km/h (1 Bft) O-SO 105 0 min 0 W/m 2,2 C 2,8 C 8,0 km/h (2 Bft)
03.03.2016 00:15 2,8 C 96 % 994,5 hPa 0,0 l/m 3,4 km/h (1 Bft) O-SO 119 0 min 0 W/m 2,2 C 2,8 C 8,0 km/h (2 Bft)
03.03.2016 00:18 2,8 C 96 % 994,5 hPa 0,0 l/m 4,1 km/h (1 Bft) S-SO 155 0 min 0 W/m 2,2 C 2,8 C 11,3 km/h (2 Bft)
03.03.2016 00:21 2,8 C 96 % 994,5 hPa 0,0 l/m 4,2 km/h (1 Bft) O-SO 112 0 min 0 W/m 2,2 C 2,8 C 8,0 km/h (2 Bft)
03.03.2016 00:24 2,8 C 96 % 994,4 hPa 0,0 l/m 4,5 km/h (1 Bft) SO 125 0 min 0 W/m 2,2 C 2,8 C 6,4 km/h (2 Bft)
03.03.2016 00:27 2,8 C 96 % 994,5 hPa 0,0 l/m 3,1 km/h (1 Bft) SO 132 0 min 0 W/m 2,2 C 2,8 C 4,8 km/h (1 Bft)
03.03.2016 00:30 2,8 C 96 % 994,5 hPa 0,0 l/m 5,4 km/h (2 Bft) SO 137 0 min 0 W/m 2,2 C 2,8 C 9,7 km/h (2 Bft)
03.03.2016 00:33 2,8 C 96 % 994,5 hPa 0,0 l/m 3,1 km/h (1 Bft) O 88 0 min 0 W/m 2,2 C 2,8 C 8,0 km/h (2 Bft)
03.03.2016 00:36 2,8 C 96 % 994,4 hPa 0,0 l/m 3,3 km/h (1 Bft) SO 125 0 min 0 W/m 2,2 C 2,8 C 9,7 km/h (2 Bft)
03.03.2016 00:39 2,8 C 96 % 994,4 hPa 0,0 l/m 3,3 km/h (1 Bft) O-SO 119 0 min 0 W/m 2,2 C 2,8 C 6,4 km/h (2 Bft)
03.03.2016 00:42 2,7 C 96 % 994,3 hPa 0,0 l/m 2,8 km/h (1 Bft) O 92 0 min 0 W/m 2,1 C 2,7 C 6,4 km/h (2 Bft)
03.03.2016 00:45 2,7 C 96 % 994,3 hPa 0,0 l/m 2,5 km/h (1 Bft) O-SO 103 0 min 0 W/m 2,1 C 2,7 C 4,8 km/h (1 Bft)
03.03.2016 00:48 2,7 C 96 % 994,4 hPa 0,0 l/m 2,6 km/h (1 Bft) O-SO 121 0 min 0 W/m 2,1 C 2,7 C 4,8 km/h (1 Bft)
03.03.2016 00:51 2,7 C 96 % 994,4 hPa 0,0 l/m 3,0 km/h (1 Bft) S-SO 150 0 min 0 W/m 2,1 C 2,7 C 9,7 km/h (2 Bft)
03.03.2016 00:54 2,6 C 96 % 994,4 hPa 0,0 l/m 2,3 km/h (1 Bft) SO 131 0 min 0 W/m 2,0 C 2,6 C 4,8 km/h (1 Bft)
03.03.2016 00:57 2,6 C 96 % 994,4 hPa 0,0 l/m 3,3 km/h (1 Bft) O-SO 121 0 min 0 W/m 2,0 C 2,6 C 6,4 km/h (2 Bft)
03.03.2016 01:00 2,6 C 96 % 994,4 hPa 0,0 l/m 5,0 km/h (1 Bft) S-SO 153 0 min 0 W/m 2,0 C 2,6 C 11,3 km/h (2 Bft)
03.03.2016 01:03 2,5 C 96 % 994,4 hPa 0,0 l/m 3,6 km/h (1 Bft) O 95 0 min 0 W/m 1,9 C 2,5 C 8,0 km/h (2 Bft)
03.03.2016 01:06 2,4 C 96 % 994,4 hPa 0,0 l/m 3,4 km/h (1 Bft) SO 128 0 min 0 W/m 1,8 C 2,4 C 6,4 km/h (2 Bft)
03.03.2016 01:09 2,3 C 96 % 994,4 hPa 0,0 l/m 2,3 km/h (1 Bft) SO 131 0 min 0 W/m 1,7 C 2,3 C 4,8 km/h (1 Bft)
03.03.2016 01:12 2,2 C 96 % 994,4 hPa 0,0 l/m 2,8 km/h (1 Bft) S-SO 157 0 min 0 W/m 1,6 C 2,2 C 8,0 km/h (2 Bft)
03.03.2016 01:15 2,1 C 96 % 994,5 hPa 0,0 l/m 3,1 km/h (1 Bft) SO 146 0 min 0 W/m 1,5 C 2,1 C 6,4 km/h (2 Bft)
03.03.2016 01:18 2,0 C 96 % 994,5 hPa 0,0 l/m 4,5 km/h (1 Bft) SO 136 0 min 0 W/m 1,4 C 2,0 C 6,4 km/h (2 Bft)
03.03.2016 01:21 2,0 C 96 % 994,6 hPa 0,0 l/m 5,0 km/h (1 Bft) SO 139 0 min 0 W/m 1,4 C 2,0 C 9,7 km/h (2 Bft)
03.03.2016 01:24 2,0 C 96 % 994,6 hPa 0,0 l/m 6,6 km/h (2 Bft) SO 126 0 min 0 W/m 1,4 C 1,8 C 14,5 km/h (3 Bft)
03.03.2016 01:27 2,0 C 96 % 994,5 hPa 0,0 l/m 4,2 km/h (1 Bft) O-SO 114 0 min 0 W/m 1,4 C 2,0 C 8,0 km/h (2 Bft)
03.03.2016 01:30 1,9 C 96 % 994,6 hPa 0,0 l/m 4,1 km/h (1 Bft) SO 125 0 min 0 W/m 1,3 C 1,9 C 6,4 km/h (2 Bft)
03.03.2016 01:33 1,9 C 96 % 994,6 hPa 0,0 l/m 3,2 km/h (1 Bft) SO 146 0 min 0 W/m 1,3 C 1,9 C 6,4 km/h (2 Bft)
03.03.2016 01:36 1,8 C 96 % 994,6 hPa 0,0 l/m 5,5 km/h (2 Bft) SO 137 0 min 0 W/m 1,2 C 1,8 C 11,3 km/h (2 Bft)
03.03.2016 01:39 1,8 C 96 % 994,5 hPa 0,0 l/m 4,3 km/h (1 Bft) S-SO 148 0 min 0 W/m 1,2 C 1,8 C 12,9 km/h (3 Bft)
03.03.2016 01:42 1,8 C 96 % 994,5 hPa 0,0 l/m 5,5 km/h (2 Bft) SO 126 0 min 0 W/m 1,2 C 1,8 C 12,9 km/h (3 Bft)
03.03.2016 01:45 1,8 C 96 % 994,5 hPa 0,0 l/m 5,2 km/h (1 Bft) SO 140 0 min 0 W/m 1,2 C 1,8 C 9,7 km/h (2 Bft)
03.03.2016 01:48 1,8 C 96 % 994,6 hPa 0,0 l/m 5,4 km/h (2 Bft) SO 140 0 min 0 W/m 1,2 C 1,8 C 11,3 km/h (2 Bft)
03.03.2016 01:51 1,7 C 96 % 994,6 hPa 0,0 l/m 5,6 km/h (2 Bft) SO 139 0 min 0 W/m 1,1 C 1,7 C 11,3 km/h (2 Bft)
03.03.2016 01:54 1,7 C 96 % 994,5 hPa 0,0 l/m 5,7 km/h (2 Bft) SO 124 0 min 0 W/m 1,1 C 1,7 C 11,3 km/h (2 Bft)
03.03.2016 01:57 1,7 C 96 % 994,6 hPa 0,0 l/m 6,5 km/h (2 Bft) S-SO 165 0 min 0 W/m 1,1 C 1,6 C 12,9 km/h (3 Bft)
03.03.2016 02:00 1,7 C 96 % 994,5 hPa 0,0 l/m 5,9 km/h (2 Bft) S-SO 160 0 min 0 W/m 1,1 C 1,7 C 11,3 km/h (2 Bft)
03.03.2016 02:03 1,7 C 96 % 994,5 hPa 0,0 l/m 6,4 km/h (2 Bft) O-SO 123 0 min 0 W/m 1,1 C 1,7 C 11,3 km/h (2 Bft)
03.03.2016 02:06 1,8 C 96 % 994,5 hPa 0,0 l/m 6,6 km/h (2 Bft) SO 132 0 min 0 W/m 1,2 C 1,6 C 12,9 km/h (3 Bft)
03.03.2016 02:09 1,7 C 96 % 994,6 hPa 0,0 l/m 4,2 km/h (1 Bft) SO 140 0 min 0 W/m 1,1 C 1,7 C 9,7 km/h (2 Bft)
03.03.2016 02:12 1,6 C 96 % 994,6 hPa 0,0 l/m 4,4 km/h (1 Bft) O-SO 109 0 min 0 W/m 1,0 C 1,6 C 12,9 km/h (3 Bft)
03.03.2016 02:15 1,5 C 96 % 994,7 hPa 0,0 l/m 4,7 km/h (1 Bft) SO 138 0 min 0 W/m 0,9 C 1,5 C 9,7 km/h (2 Bft)
03.03.2016 02:18 1,5 C 96 % 994,7 hPa 0,0 l/m 5,0 km/h (1 Bft) SO 138 0 min 0 W/m 0,9 C 1,5 C 9,7 km/h (2 Bft)
03.03.2016 02:21 1,5 C 96 % 994,7 hPa 0,0 l/m 4,4 km/h (1 Bft) SO 126 0 min 0 W/m 0,9 C 1,5 C 9,7 km/h (2 Bft)
03.03.2016 02:24 1,5 C 96 % 994,7 hPa 0,0 l/m 5,7 km/h (2 Bft) O-SO 107 0 min 0 W/m 0,9 C 1,5 C 12,9 km/h (3 Bft)
03.03.2016 02:27 1,5 C 96 % 994,7 hPa 0,0 l/m 6,4 km/h (2 Bft) SO 135 0 min 0 W/m 0,9 C 1,5 C 11,3 km/h (2 Bft)
03.03.2016 02:30 1,4 C 96 % 994,7 hPa 0,0 l/m 6,2 km/h (2 Bft) SO 143 0 min 0 W/m 0,8 C 1,4 C 11,3 km/h (2 Bft)
03.03.2016 02:33 1,4 C 96 % 994,8 hPa 0,0 l/m 7,1 km/h (2 Bft) S-SO 156 0 min 0 W/m 0,8 C 0,7 C 11,3 km/h (2 Bft)
03.03.2016 02:36 1,5 C 96 % 994,7 hPa 0,2 l/m 5,2 km/h (1 Bft) SO 135 0 min 0 W/m 0,9 C 1,5 C 9,7 km/h (2 Bft)
03.03.2016 02:39 1,5 C 96 % 994,6 hPa 0,0 l/m 5,7 km/h (2 Bft) SO 146 0 min 0 W/m 0,9 C 1,5 C 11,3 km/h (2 Bft)
03.03.2016 02:42 1,5 C 96 % 994,5 hPa 0,0 l/m 6,7 km/h (2 Bft) SO 133 0 min 0 W/m 0,9 C 1,2 C 11,3 km/h (2 Bft)
03.03.2016 02:45 1,4 C 96 % 994,5 hPa 0,0 l/m 5,8 km/h (2 Bft) O-SO 112 0 min 0 W/m 0,8 C 1,4 C 11,3 km/h (2 Bft)
03.03.2016 02:48 1,4 C 96 % 994,5 hPa 0,0 l/m 5,4 km/h (2 Bft) SO 144 0 min 0 W/m 0,8 C 1,4 C 8,0 km/h (2 Bft)
03.03.2016 02:51 1,4 C 96 % 994,6 hPa 0,0 l/m 6,1 km/h (2 Bft) S-SO 148 0 min 0 W/m 0,8 C 1,4 C 11,3 km/h (2 Bft)
03.03.2016 02:54 1,4 C 96 % 994,5 hPa 0,0 l/m 4,8 km/h (1 Bft) S-SO 150 0 min 0 W/m 0,8 C 1,4 C 9,7 km/h (2 Bft)
03.03.2016 02:57 1,3 C 96 % 994,6 hPa 0,0 l/m 4,6 km/h (1 Bft) O-SO 123 0 min 0 W/m 0,7 C 1,3 C 8,0 km/h (2 Bft)
03.03.2016 03:00 1,3 C 96 % 994,5 hPa 0,0 l/m 4,8 km/h (1 Bft) O-SO 104 0 min 0 W/m 0,7 C 1,3 C 11,3 km/h (2 Bft)
03.03.2016 03:03 1,3 C 96 % 994,5 hPa 0,0 l/m 5,0 km/h (1 Bft) SO 138 0 min 0 W/m 0,7 C 1,3 C 12,9 km/h (3 Bft)
03.03.2016 03:06 1,4 C 96 % 994,5 hPa 0,0 l/m 4,4 km/h (1 Bft) SO 124 0 min 0 W/m 0,8 C 1,4 C 8,0 km/h (2 Bft)
03.03.2016 03:09 1,4 C 96 % 994,5 hPa 0,0 l/m 4,1 km/h (1 Bft) SO 141 0 min 0 W/m 0,8 C 1,4 C 11,3 km/h (2 Bft)
03.03.2016 03:12 1,4 C 96 % 994,5 hPa 0,0 l/m 3,2 km/h (1 Bft) O-SO 109 0 min 0 W/m 0,8 C 1,4 C 6,4 km/h (2 Bft)
03.03.2016 03:15 1,3 C 96 % 994,5 hPa 0,0 l/m 3,0 km/h (1 Bft) SO 130 0 min 0 W/m 0,7 C 1,3 C 8,0 km/h (2 Bft)
03.03.2016 03:18 1,4 C 96 % 994,5 hPa 0,0 l/m 3,5 km/h (1 Bft) S-SO 154 0 min 0 W/m 0,8 C 1,4 C 6,4 km/h (2 Bft)
03.03.2016 03:21 1,3 C 96 % 994,4 hPa 0,0 l/m 3,4 km/h (1 Bft) S-SO 160 0 min 0 W/m 0,7 C 1,3 C 6,4 km/h (2 Bft)
03.03.2016 03:24 1,3 C 96 % 994,5 hPa 0,0 l/m 4,8 km/h (1 Bft) SO 134 0 min 0 W/m 0,7 C 1,3 C 8,0 km/h (2 Bft)
03.03.2016 03:27 1,3 C 96 % 994,5 hPa 0,0 l/m 4,8 km/h (1 Bft) S-SO 154 0 min 0 W/m 0,7 C 1,3 C 8,0 km/h (2 Bft)
03.03.2016 03:30 1,3 C 96 % 994,5 hPa 0,0 l/m 4,5 km/h (1 Bft) SO 132 0 min 0 W/m 0,7 C 1,3 C 8,0 km/h (2 Bft)
03.03.2016 03:33 1,4 C 96 % 994,6 hPa 0,0 l/m 4,0 km/h (1 Bft) O-SO 120 0 min 0 W/m 0,8 C 1,4 C 6,4 km/h (2 Bft)
03.03.2016 03:36 1,4 C 96 % 994,5 hPa 0,0 l/m 2,6 km/h (1 Bft) O 93 0 min 0 W/m 0,8 C 1,4 C 6,4 km/h (2 Bft)
03.03.2016 03:39 1,4 C 96 % 994,6 hPa 0,0 l/m 2,7 km/h (1 Bft) O-SO 123 0 min 0 W/m 0,8 C 1,4 C 6,4 km/h (2 Bft)
03.03.2016 03:42 1,4 C 96 % 994,7 hPa 0,0 l/m 4,5 km/h (1 Bft) O-SO 116 0 min 0 W/m 0,8 C 1,4 C 11,3 km/h (2 Bft)
03.03.2016 03:45 1,4 C 96 % 994,7 hPa 0,0 l/m 4,1 km/h (1 Bft) SO 134 0 min 0 W/m 0,8 C 1,4 C 6,4 km/h (2 Bft)
03.03.2016 03:48 1,5 C 96 % 994,8 hPa 0,0 l/m 4,3 km/h (1 Bft) SO 134 0 min 0 W/m 0,9 C 1,5 C 6,4 km/h (2 Bft)
03.03.2016 03:51 1,5 C 96 % 994,8 hPa 0,0 l/m 4,9 km/h (1 Bft) O-SO 114 0 min 0 W/m 0,9 C 1,5 C 8,0 km/h (2 Bft)
03.03.2016 03:54 1,6 C 96 % 994,8 hPa 0,0 l/m 4,2 km/h (1 Bft) SO 129 0 min 0 W/m 1,0 C 1,6 C 8,0 km/h (2 Bft)
03.03.2016 03:57 1,6 C 96 % 994,9 hPa 0,0 l/m 4,7 km/h (1 Bft) SO 142 0 min 0 W/m 1,0 C 1,6 C 8,0 km/h (2 Bft)
03.03.2016 04:00 1,6 C 96 % 994,9 hPa 0,0 l/m 4,1 km/h (1 Bft) SO 142 0 min 0 W/m 1,0 C 1,6 C 6,4 km/h (2 Bft)
03.03.2016 04:03 1,6 C 96 % 994,9 hPa 0,0 l/m 5,0 km/h (1 Bft) SO 135 0 min 0 W/m 1,0 C 1,6 C 11,3 km/h (2 Bft)
03.03.2016 04:06 1,6 C 96 % 995,0 hPa 0,0 l/m 5,4 km/h (2 Bft) SO 132 0 min 0 W/m 1,0 C 1,6 C 9,7 km/h (2 Bft)
03.03.2016 04:09 1,7 C 96 % 994,9 hPa 0,0 l/m 5,8 km/h (2 Bft) SO 138 0 min 0 W/m 1,1 C 1,7 C 12,9 km/h (3 Bft)
03.03.2016 04:12 1,7 C 96 % 995,0 hPa 0,0 l/m 5,6 km/h (2 Bft) O-SO 104 0 min 0 W/m 1,1 C 1,7 C 11,3 km/h (2 Bft)
03.03.2016 04:15 1,7 C 96 % 994,9 hPa 0,0 l/m 6,8 km/h (2 Bft) O-SO 117 0 min 0 W/m 1,1 C 1,3 C 11,3 km/h (2 Bft)
03.03.2016 04:18 1,8 C 96 % 994,9 hPa 0,0 l/m 5,3 km/h (1 Bft) SO 124 0 min 0 W/m 1,2 C 1,8 C 9,7 km/h (2 Bft)
03.03.2016 04:21 1,8 C 95 % 994,9 hPa 0,0 l/m 6,4 km/h (2 Bft) SO 124 0 min 0 W/m 1,1 C 1,8 C 12,9 km/h (3 Bft)
03.03.2016 04:24 1,8 C 95 % 994,9 hPa 0,0 l/m 5,2 km/h (1 Bft) SO 126 0 min 0 W/m 1,1 C 1,8 C 11,3 km/h (2 Bft)
03.03.2016 04:27 1,8 C 95 % 995,0 hPa 0,0 l/m 4,2 km/h (1 Bft) SO 131 0 min 0 W/m 1,1 C 1,8 C 8,0 km/h (2 Bft)
03.03.2016 04:30 1,8 C 95 % 995,0 hPa 0,0 l/m 4,5 km/h (1 Bft) S-SO 149 0 min 0 W/m 1,1 C 1,8 C 8,0 km/h (2 Bft)
03.03.2016 04:33 1,8 C 95 % 995,0 hPa 0,0 l/m 4,3 km/h (1 Bft) S-SO 160 0 min 0 W/m 1,1 C 1,8 C 8,0 km/h (2 Bft)
03.03.2016 04:36 1,8 C 95 % 995,0 hPa 0,0 l/m 5,3 km/h (1 Bft) O-SO 123 0 min 0 W/m 1,1 C 1,8 C 9,7 km/h (2 Bft)
03.03.2016 04:39 1,8 C 95 % 995,0 hPa 0,0 l/m 3,6 km/h (1 Bft) SO 138 0 min 0 W/m 1,1 C 1,8 C 6,4 km/h (2 Bft)
03.03.2016 04:42 1,8 C 95 % 995,1 hPa 0,0 l/m 5,3 km/h (1 Bft) SO 129 0 min 0 W/m 1,1 C 1,8 C 9,7 km/h (2 Bft)
03.03.2016 04:45 1,8 C 95 % 995,1 hPa 0,0 l/m 4,2 km/h (1 Bft) S-SO 162 0 min 0 W/m 1,1 C 1,8 C 8,0 km/h (2 Bft)
03.03.2016 04:48 1,8 C 95 % 995,1 hPa 0,0 l/m 5,5 km/h (2 Bft) SO 144 0 min 0 W/m 1,1 C 1,8 C 11,3 km/h (2 Bft)
03.03.2016 04:51 1,8 C 95 % 995,1 hPa 0,0 l/m 3,7 km/h (1 Bft) SO 130 0 min 0 W/m 1,1 C 1,8 C 8,0 km/h (2 Bft)
03.03.2016 04:54 1,8 C 95 % 995,1 hPa 0,0 l/m 3,4 km/h (1 Bft) SO 142 0 min 0 W/m 1,1 C 1,8 C 6,4 km/h (2 Bft)
03.03.2016 04:57 1,8 C 95 % 995,1 hPa 0,0 l/m 4,6 km/h (1 Bft) O-SO 118 0 min 0 W/m 1,1 C 1,8 C 9,7 km/h (2 Bft)
03.03.2016 05:00 1,8 C 95 % 995,1 hPa 0,0 l/m 4,3 km/h (1 Bft) O-SO 108 0 min 0 W/m 1,1 C 1,8 C 11,3 km/h (2 Bft)
03.03.2016 05:03 1,8 C 95 % 995,2 hPa 0,0 l/m 4,8 km/h (1 Bft) O 98 0 min 0 W/m 1,1 C 1,8 C 9,7 km/h (2 Bft)
03.03.2016 05:06 1,8 C 95 % 995,2 hPa 0,0 l/m 5,0 km/h (1 Bft) S-SO 162 0 min 0 W/m 1,1 C 1,8 C 11,3 km/h (2 Bft)
03.03.2016 05:09 1,9 C 95 % 995,2 hPa 0,0 l/m 5,1 km/h (1 Bft) SO 140 0 min 0 W/m 1,2 C 1,9 C 8,0 km/h (2 Bft)
03.03.2016 05:12 1,9 C 95 % 995,3 hPa 0,0 l/m 4,5 km/h (1 Bft) O-SO 120 0 min 0 W/m 1,2 C 1,9 C 8,0 km/h (2 Bft)
03.03.2016 05:15 1,9 C 95 % 995,2 hPa 0,0 l/m 4,0 km/h (1 Bft) S-SO 157 0 min 0 W/m 1,2 C 1,9 C 8,0 km/h (2 Bft)
03.03.2016 05:18 2,0 C 95 % 995,3 hPa 0,0 l/m 3,2 km/h (1 Bft) O-SO 115 0 min 0 W/m 1,3 C 2,0 C 4,8 km/h (1 Bft)
03.03.2016 05:21 2,0 C 95 % 995,4 hPa 0,0 l/m 4,0 km/h (1 Bft) SO 130 0 min 0 W/m 1,3 C 2,0 C 9,7 km/h (2 Bft)
03.03.2016 05:24 2,1 C 95 % 995,4 hPa 0,0 l/m 4,9 km/h (1 Bft) SO 146 0 min 0 W/m 1,4 C 2,1 C 12,9 km/h (3 Bft)
03.03.2016 05:27 2,1 C 95 % 995,4 hPa 0,0 l/m 3,8 km/h (1 Bft) S-SO 161 0 min 0 W/m 1,4 C 2,1 C 8,0 km/h (2 Bft)
03.03.2016 05:30 2,1 C 95 % 995,5 hPa 0,0 l/m 6,2 km/h (2 Bft) S-SO 156 0 min 0 W/m 1,4 C 2,1 C 14,5 km/h (3 Bft)
03.03.2016 05:33 2,1 C 95 % 995,4 hPa 0,0 l/m 5,8 km/h (2 Bft) O-SO 102 0 min 0 W/m 1,4 C 2,1 C 12,9 km/h (3 Bft)
03.03.2016 05:36 2,1 C 95 % 995,5 hPa 0,0 l/m 4,9 km/h (1 Bft) S 171 0 min 0 W/m 1,4 C 2,1 C 12,9 km/h (3 Bft)
03.03.2016 05:39 2,1 C 95 % 995,5 hPa 0,0 l/m 3,6 km/h (1 Bft) O-SO 105 0 min 0 W/m 1,4 C 2,1 C 6,4 km/h (2 Bft)
03.03.2016 05:42 2,1 C 95 % 995,5 hPa 0,0 l/m 3,3 km/h (1 Bft) SO 145 0 min 0 W/m 1,4 C 2,1 C 6,4 km/h (2 Bft)
03.03.2016 05:45 2,1 C 95 % 995,5 hPa 0,0 l/m 3,0 km/h (1 Bft) O-SO 123 0 min 0 W/m 1,4 C 2,1 C 8,0 km/h (2 Bft)
03.03.2016 05:48 2,1 C 95 % 995,5 hPa 0,0 l/m 3,1 km/h (1 Bft) O-NO 78 0 min 0 W/m 1,4 C 2,1 C 6,4 km/h (2 Bft)
03.03.2016 05:51 2,1 C 95 % 995,4 hPa 0,0 l/m 3,3 km/h (1 Bft) O 86 0 min 0 W/m 1,4 C 2,1 C 6,4 km/h (2 Bft)
03.03.2016 05:54 2,1 C 95 % 995,4 hPa 0,0 l/m 2,4 km/h (1 Bft) O-SO 117 0 min 0 W/m 1,4 C 2,1 C 6,4 km/h (2 Bft)
03.03.2016 05:57 2,1 C 95 % 995,3 hPa 0,0 l/m 3,3 km/h (1 Bft) O-NO 71 0 min 0 W/m 1,4 C 2,1 C 8,0 km/h (2 Bft)
03.03.2016 06:00 2,1 C 95 % 995,4 hPa 0,0 l/m 5,1 km/h (1 Bft) O-SO 113 0 min 0 W/m 1,4 C 2,1 C 12,9 km/h (3 Bft)
03.03.2016 06:03 2,1 C 95 % 995,4 hPa 0,0 l/m 2,7 km/h (1 Bft) S-SO 150 0 min 0 W/m 1,4 C 2,1 C 9,7 km/h (2 Bft)
03.03.2016 06:06 2,1 C 95 % 995,4 hPa 0,0 l/m 5,0 km/h (1 Bft) SO 128 0 min 0 W/m 1,4 C 2,1 C 11,3 km/h (2 Bft)
03.03.2016 06:09 2,2 C 95 % 995,4 hPa 0,0 l/m 5,6 km/h (2 Bft) O-SO 115 0 min 0 W/m 1,5 C 2,2 C 11,3 km/h (2 Bft)
03.03.2016 06:12 2,2 C 95 % 995,4 hPa 0,0 l/m 5,1 km/h (1 Bft) SO 146 0 min 0 W/m 1,5 C 2,2 C 14,5 km/h (3 Bft)
03.03.2016 06:15 2,2 C 95 % 995,5 hPa 0,0 l/m 5,3 km/h (1 Bft) SO 132 0 min 0 W/m 1,5 C 2,2 C 12,9 km/h (3 Bft)
03.03.2016 06:18 2,2 C 95 % 995,4 hPa 0,0 l/m 6,5 km/h (2 Bft) SO 136 0 min 0 W/m 1,5 C 2,1 C 12,9 km/h (3 Bft)
03.03.2016 06:21 2,3 C 95 % 995,4 hPa 0,0 l/m 6,1 km/h (2 Bft) O 98 0 min 0 W/m 1,6 C 2,3 C 12,9 km/h (3 Bft)
03.03.2016 06:24 2,3 C 95 % 995,4 hPa 0,0 l/m 4,7 km/h (1 Bft) O-SO 111 0 min 0 W/m 1,6 C 2,3 C 14,5 km/h (3 Bft)
03.03.2016 06:27 2,3 C 95 % 995,5 hPa 0,2 l/m 4,2 km/h (1 Bft) O 86 0 min 0 W/m 1,6 C 2,3 C 11,3 km/h (2 Bft)
03.03.2016 06:30 2,3 C 95 % 995,5 hPa 0,0 l/m 2,8 km/h (1 Bft) NO 36 0 min 0 W/m 1,6 C 2,3 C 6,4 km/h (2 Bft)
03.03.2016 06:33 2,3 C 95 % 995,5 hPa 0,0 l/m 4,5 km/h (1 Bft) O-NO 74 0 min 0 W/m 1,6 C 2,3 C 9,7 km/h (2 Bft)
03.03.2016 06:36 2,3 C 95 % 995,5 hPa 0,0 l/m 4,8 km/h (1 Bft) O 98 0 min 0 W/m 1,6 C 2,3 C 9,7 km/h (2 Bft)
03.03.2016 06:39 2,3 C 95 % 995,5 hPa 0,0 l/m 4,1 km/h (1 Bft) O-NO 57 0 min 0 W/m 1,6 C 2,3 C 12,9 km/h (3 Bft)
03.03.2016 06:42 2,3 C 95 % 995,5 hPa 0,0 l/m 5,2 km/h (1 Bft) NO 34 0 min 0 W/m 1,6 C 2,3 C 12,9 km/h (3 Bft)
03.03.2016 06:45 2,3 C 95 % 995,5 hPa 0,0 l/m 4,3 km/h (1 Bft) O-SO 119 0 min 0 W/m 1,6 C 2,3 C 12,9 km/h (3 Bft)
03.03.2016 06:48 2,3 C 95 % 995,5 hPa 0,0 l/m 6,5 km/h (2 Bft) O-SO 113 0 min 0 W/m 1,6 C 2,2 C 14,5 km/h (3 Bft)
03.03.2016 06:51 2,3 C 95 % 995,5 hPa 0,0 l/m 4,4 km/h (1 Bft) O-SO 113 0 min 0 W/m 1,6 C 2,3 C 11,3 km/h (2 Bft)
03.03.2016 06:54 2,3 C 95 % 995,6 hPa 0,0 l/m 4,3 km/h (1 Bft) O-SO 107 0 min 0 W/m 1,6 C 2,3 C 16,1 km/h (3 Bft)
03.03.2016 06:57 2,3 C 95 % 995,6 hPa 0,0 l/m 4,6 km/h (1 Bft) SO 141 0 min 0 W/m 1,6 C 2,3 C 11,3 km/h (2 Bft)
03.03.2016 07:00 2,3 C 95 % 995,6 hPa 0,0 l/m 3,5 km/h (1 Bft) O-SO 115 0 min 0 W/m 1,6 C 2,3 C 9,7 km/h (2 Bft)
03.03.2016 07:03 2,3 C 95 % 995,6 hPa 0,0 l/m 5,1 km/h (1 Bft) SO 126 0 min 0 W/m 1,6 C 2,3 C 12,9 km/h (3 Bft)
03.03.2016 07:06 2,3 C 95 % 995,7 hPa 0,0 l/m 3,9 km/h (1 Bft) SO 144 0 min 0 W/m 1,6 C 2,3 C 9,7 km/h (2 Bft)
03.03.2016 07:09 2,3 C 95 % 995,7 hPa 0,0 l/m 4,0 km/h (1 Bft) O-SO 105 0 min 0 W/m 1,6 C 2,3 C 9,7 km/h (2 Bft)
03.03.2016 07:12 2,3 C 95 % 995,8 hPa 0,0 l/m 4,1 km/h (1 Bft) SO 144 0 min 0 W/m 1,6 C 2,3 C 6,4 km/h (2 Bft)
03.03.2016 07:15 2,3 C 95 % 995,8 hPa 0,0 l/m 3,8 km/h (1 Bft) SO 139 0 min 0 W/m 1,6 C 2,3 C 8,0 km/h (2 Bft)
03.03.2016 07:18 2,3 C 95 % 995,8 hPa 0,0 l/m 2,1 km/h (1 Bft) SO 143 0 min 0 W/m 1,6 C 2,3 C 4,8 km/h (1 Bft)
03.03.2016 07:21 2,4 C 95 % 995,8 hPa 0,0 l/m 3,8 km/h (1 Bft) SO 130 0 min 0 W/m 1,7 C 2,4 C 8,0 km/h (2 Bft)
03.03.2016 07:24 2,4 C 95 % 995,8 hPa 0,0 l/m 3,8 km/h (1 Bft) SO 126 0 min 0 W/m 1,7 C 2,4 C 8,0 km/h (2 Bft)
03.03.2016 07:27 2,4 C 95 % 995,8 hPa 0,0 l/m 3,7 km/h (1 Bft) O-SO 109 0 min 5 W/m 1,7 C 2,4 C 11,3 km/h (2 Bft)
03.03.2016 07:30 2,4 C 95 % 995,8 hPa 0,0 l/m 4,6 km/h (1 Bft) SO 137 0 min 5 W/m 1,7 C 2,4 C 9,7 km/h (2 Bft)
03.03.2016 07:33 2,3 C 95 % 995,8 hPa 0,0 l/m 5,2 km/h (1 Bft) S-SO 148 0 min 5 W/m 1,6 C 2,3 C 12,9 km/h (3 Bft)
03.03.2016 07:36 2,3 C 95 % 995,9 hPa 0,0 l/m 7,0 km/h (2 Bft) SO 134 0 min 5 W/m 1,6 C 1,7 C 16,1 km/h (3 Bft)
03.03.2016 07:39 2,3 C 95 % 995,9 hPa 0,0 l/m 7,0 km/h (2 Bft) SO 146 0 min 7 W/m 1,6 C 1,7 C 14,5 km/h (3 Bft)
03.03.2016 07:42 2,3 C 95 % 996,0 hPa 0,2 l/m 7,2 km/h (2 Bft) SO 134 0 min 7 W/m 1,6 C 1,5 C 14,5 km/h (3 Bft)
03.03.2016 07:45 2,3 C 95 % 996,0 hPa 0,0 l/m 8,4 km/h (2 Bft) O-SO 113 0 min 0 W/m 1,6 C 0,4 C 19,3 km/h (3 Bft)
03.03.2016 07:48 2,2 C 95 % 996,1 hPa 0,2 l/m 8,7 km/h (2 Bft) S-SO 155 0 min 0 W/m 1,5 C 0,0 C 14,5 km/h (3 Bft)
03.03.2016 07:51 2,0 C 94 % 996,1 hPa 0,0 l/m 5,8 km/h (2 Bft) SO 140 0 min 0 W/m 1,1 C 2,0 C 12,9 km/h (3 Bft)
03.03.2016 07:54 1,8 C 94 % 996,1 hPa 0,2 l/m 4,7 km/h (1 Bft) SO 141 0 min 5 W/m 0,9 C 1,8 C 9,7 km/h (2 Bft)
03.03.2016 07:57 1,7 C 95 % 996,1 hPa 0,0 l/m 4,0 km/h (1 Bft) S-SO 150 0 min 7 W/m 1,0 C 1,7 C 8,0 km/h (2 Bft)
03.03.2016 08:00 1,6 C 95 % 996,1 hPa 0,0 l/m 4,7 km/h (1 Bft) O 87 0 min 7 W/m 0,9 C 1,6 C 9,7 km/h (2 Bft)
03.03.2016 08:03 1,6 C 95 % 996,1 hPa 0,2 l/m 6,8 km/h (2 Bft) S-SO 166 0 min 11 W/m 0,9 C 1,2 C 12,9 km/h (3 Bft)
03.03.2016 08:06 1,6 C 96 % 996,2 hPa 0,0 l/m 5,2 km/h (1 Bft) S 186 0 min 14 W/m 1,0 C 1,6 C 14,5 km/h (3 Bft)
03.03.2016 08:09 1,5 C 96 % 996,2 hPa 0,0 l/m 4,7 km/h (1 Bft) S 177 0 min 16 W/m 0,9 C 1,5 C 12,9 km/h (3 Bft)
03.03.2016 08:12 1,4 C 96 % 996,3 hPa 0,0 l/m 3,8 km/h (1 Bft) SO 130 0 min 19 W/m 0,8 C 1,4 C 8,0 km/h (2 Bft)
03.03.2016 08:15 1,4 C 96 % 996,3 hPa 0,0 l/m 4,8 km/h (1 Bft) O 95 0 min 16 W/m 0,8 C 1,4 C 12,9 km/h (3 Bft)
03.03.2016 08:18 1,3 C 96 % 996,3 hPa 0,2 l/m 5,0 km/h (1 Bft) O-SO 108 0 min 18 W/m 0,7 C 1,3 C 11,3 km/h (2 Bft)
03.03.2016 08:21 1,3 C 96 % 996,4 hPa 0,0 l/m 3,1 km/h (1 Bft) SO 138 0 min 21 W/m 0,7 C 1,3 C 6,4 km/h (2 Bft)
03.03.2016 08:24 1,3 C 96 % 996,4 hPa 0,0 l/m 3,0 km/h (1 Bft) SO 133 0 min 28 W/m 0,7 C 1,3 C 6,4 km/h (2 Bft)
03.03.2016 08:27 1,3 C 96 % 996,4 hPa 0,0 l/m 2,8 km/h (1 Bft) SO 134 0 min 37 W/m 0,7 C 1,3 C 8,0 km/h (2 Bft)
03.03.2016 08:30 1,3 C 97 % 996,4 hPa 0,0 l/m 3,7 km/h (1 Bft) S-SO 164 0 min 40 W/m 0,9 C 1,3 C 9,7 km/h (2 Bft)
03.03.2016 08:33 1,4 C 97 % 996,5 hPa 0,2 l/m 3,9 km/h (1 Bft) O-SO 104 0 min 49 W/m 1,0 C 1,4 C 8,0 km/h (2 Bft)
03.03.2016 08:36 1,5 C 97 % 996,5 hPa 0,0 l/m 4,9 km/h (1 Bft) O-SO 118 0 min 47 W/m 1,1 C 1,5 C 11,3 km/h (2 Bft)
03.03.2016 08:39 1,6 C 97 % 996,5 hPa 0,0 l/m 4,9 km/h (1 Bft) O-SO 102 0 min 51 W/m 1,2 C 1,6 C 9,7 km/h (2 Bft)
03.03.2016 08:42 1,6 C 97 % 996,5 hPa 0,0 l/m 6,3 km/h (2 Bft) S-SO 148 0 min 56 W/m 1,2 C 1,6 C 12,9 km/h (3 Bft)
03.03.2016 08:45 1,7 C 97 % 996,5 hPa 0,0 l/m 4,3 km/h (1 Bft) SO 124 0 min 62 W/m 1,3 C 1,7 C 8,0 km/h (2 Bft)
03.03.2016 08:48 1,8 C 97 % 996,5 hPa 0,0 l/m 4,5 km/h (1 Bft) SO 142 0 min 56 W/m 1,4 C 1,8 C 11,3 km/h (2 Bft)
03.03.2016 08:51 1,9 C 97 % 996,5 hPa 0,0 l/m 5,4 km/h (2 Bft) S-SO 158 0 min 53 W/m 1,5 C 1,9 C 12,9 km/h (3 Bft)
03.03.2016 08:54 1,9 C 97 % 996,6 hPa 0,0 l/m 5,9 km/h (2 Bft) SO 142 0 min 42 W/m 1,5 C 1,9 C 12,9 km/h (3 Bft)
03.03.2016 08:57 2,0 C 97 % 996,6 hPa 0,0 l/m 6,9 km/h (2 Bft) SO 126 0 min 30 W/m 1,6 C 1,5 C 14,5 km/h (3 Bft)
03.03.2016 09:00 2,1 C 97 % 996,6 hPa 0,0 l/m 5,9 km/h (2 Bft) O-SO 120 0 min 30 W/m 1,7 C 2,1 C 14,5 km/h (3 Bft)
03.03.2016 09:03 2,1 C 97 % 996,6 hPa 0,0 l/m 4,8 km/h (1 Bft) SO 124 0 min 39 W/m 1,7 C 2,1 C 12,9 km/h (3 Bft)
03.03.2016 09:06 2,2 C 97 % 996,7 hPa 0,2 l/m 5,9 km/h (2 Bft) SO 132 0 min 56 W/m 1,8 C 2,2 C 12,9 km/h (3 Bft)
03.03.2016 09:09 2,3 C 97 % 996,7 hPa 0,0 l/m 7,0 km/h (2 Bft) SO 132 0 min 70 W/m 1,9 C 1,7 C 14,5 km/h (3 Bft)
03.03.2016 09:12 2,3 C 97 % 996,7 hPa 0,0 l/m 5,4 km/h (2 Bft) SO 135 0 min 46 W/m 1,9 C 2,3 C 11,3 km/h (2 Bft)
03.03.2016 09:15 2,4 C 97 % 996,7 hPa 0,0 l/m 5,4 km/h (2 Bft) O-SO 111 0 min 51 W/m 2,0 C 2,4 C 14,5 km/h (3 Bft)
03.03.2016 09:18 2,5 C 97 % 996,7 hPa 0,0 l/m 3,6 km/h (1 Bft) O 98 0 min 49 W/m 2,1 C 2,5 C 8,0 km/h (2 Bft)
03.03.2016 09:21 2,5 C 97 % 996,7 hPa 0,0 l/m 6,3 km/h (2 Bft) S-SO 166 0 min 47 W/m 2,1 C 2,5 C 11,3 km/h (2 Bft)
03.03.2016 09:24 2,6 C 97 % 996,8 hPa 0,0 l/m 4,7 km/h (1 Bft) S-SO 147 0 min 58 W/m 2,2 C 2,6 C 8,0 km/h (2 Bft)
03.03.2016 09:27 2,6 C 97 % 996,9 hPa 0,0 l/m 3,2 km/h (1 Bft) SO 134 0 min 70 W/m 2,2 C 2,6 C 8,0 km/h (2 Bft)
03.03.2016 09:30 2,7 C 97 % 996,8 hPa 0,0 l/m 4,6 km/h (1 Bft) SO 136 0 min 72 W/m 2,3 C 2,7 C 11,3 km/h (2 Bft)
03.03.2016 09:33 2,7 C 97 % 996,9 hPa 0,0 l/m 5,0 km/h (1 Bft) S-SO 155 0 min 83 W/m 2,3 C 2,7 C 11,3 km/h (2 Bft)
03.03.2016 09:36 2,8 C 97 % 996,9 hPa 0,0 l/m 4,8 km/h (1 Bft) O-SO 123 0 min 93 W/m 2,4 C 2,8 C 11,3 km/h (2 Bft)
03.03.2016 09:39 2,8 C 97 % 996,9 hPa 0,0 l/m 5,1 km/h (1 Bft) NW 316 0 min 113 W/m 2,4 C 2,8 C 11,3 km/h (2 Bft)
03.03.2016 09:42 2,9 C 97 % 996,9 hPa 0,0 l/m 4,2 km/h (1 Bft) S-SO 150 0 min 130 W/m 2,5 C 2,9 C 11,3 km/h (2 Bft)
03.03.2016 09:45 3,1 C 97 % 996,9 hPa 0,0 l/m 5,8 km/h (2 Bft) O-SO 120 0 min 113 W/m 2,7 C 3,1 C 11,3 km/h (2 Bft)
03.03.2016 09:48 3,1 C 97 % 996,9 hPa 0,0 l/m 4,5 km/h (1 Bft) S-SO 163 0 min 100 W/m 2,7 C 3,1 C 11,3 km/h (2 Bft)
03.03.2016 09:51 3,2 C 97 % 997,0 hPa 0,0 l/m 4,8 km/h (1 Bft) S-SO 159 0 min 100 W/m 2,8 C 3,2 C 12,9 km/h (3 Bft)
03.03.2016 09:54 3,2 C 97 % 997,0 hPa 0,0 l/m 4,8 km/h (1 Bft) O-SO 123 0 min 98 W/m 2,8 C 3,2 C 9,7 km/h (2 Bft)
03.03.2016 09:57 3,2 C 97 % 997,0 hPa 0,0 l/m 5,8 km/h (2 Bft) SO 134 0 min 91 W/m 2,8 C 3,2 C 12,9 km/h (3 Bft)
03.03.2016 10:00 3,2 C 97 % 997,1 hPa 0,0 l/m 4,3 km/h (1 Bft) S-SO 153 0 min 72 W/m 2,8 C 3,2 C 8,0 km/h (2 Bft)
03.03.2016 10:03 3,2 C 97 % 997,1 hPa 0,0 l/m 4,5 km/h (1 Bft) SO 131 0 min 91 W/m 2,8 C 3,2 C 9,7 km/h (2 Bft)
03.03.2016 10:06 3,2 C 97 % 997,1 hPa 0,0 l/m 5,6 km/h (2 Bft) O-SO 107 0 min 114 W/m 2,8 C 3,2 C 11,3 km/h (2 Bft)
03.03.2016 10:09 3,2 C 97 % 997,1 hPa 0,0 l/m 4,9 km/h (1 Bft) O-SO 121 0 min 109 W/m 2,8 C 3,2 C 11,3 km/h (2 Bft)
03.03.2016 10:12 3,3 C 97 % 997,1 hPa 0,0 l/m 7,1 km/h (2 Bft) SO 144 0 min 97 W/m 2,9 C 2,6 C 14,5 km/h (3 Bft)
03.03.2016 10:15 3,2 C 97 % 997,1 hPa 0,0 l/m 6,3 km/h (2 Bft) SO 134 0 min 93 W/m 2,8 C 3,2 C 12,9 km/h (3 Bft)
03.03.2016 10:18 3,2 C 97 % 997,1 hPa 0,0 l/m 4,3 km/h (1 Bft) O-SO 119 0 min 97 W/m 2,8 C 3,2 C 9,7 km/h (2 Bft)
03.03.2016 10:21 3,3 C 97 % 997,2 hPa 0,0 l/m 6,1 km/h (2 Bft) S-SO 148 0 min 104 W/m 2,9 C 3,3 C 11,3 km/h (2 Bft)
03.03.2016 10:24 3,3 C 97 % 997,2 hPa 0,0 l/m 7,3 km/h (2 Bft) S-SO 161 0 min 90 W/m 2,9 C 2,5 C 16,1 km/h (3 Bft)
03.03.2016 10:27 3,3 C 97 % 997,2 hPa 0,0 l/m 6,1 km/h (2 Bft) S-SO 168 0 min 74 W/m 2,9 C 3,3 C 14,5 km/h (3 Bft)
03.03.2016 10:30 3,3 C 96 % 997,2 hPa 0,0 l/m 5,9 km/h (2 Bft) S 174 0 min 79 W/m 2,7 C 3,3 C 9,7 km/h (2 Bft)
03.03.2016 10:33 3,3 C 96 % 997,3 hPa 0,0 l/m 6,7 km/h (2 Bft) S-SO 158 0 min 72 W/m 2,7 C 3,0 C 14,5 km/h (3 Bft)
03.03.2016 10:36 3,3 C 96 % 997,4 hPa 0,0 l/m 5,9 km/h (2 Bft) S-SO 161 0 min 84 W/m 2,7 C 3,3 C 11,3 km/h (2 Bft)
03.03.2016 10:39 3,3 C 96 % 997,4 hPa 0,0 l/m 7,5 km/h (2 Bft) S-SO 157 0 min 83 W/m 2,7 C 2,3 C 14,5 km/h (3 Bft)
03.03.2016 10:42 3,3 C 96 % 997,4 hPa 0,0 l/m 6,1 km/h (2 Bft) S 175 0 min 93 W/m 2,7 C 3,3 C 12,9 km/h (3 Bft)
03.03.2016 10:45 3,3 C 96 % 997,5 hPa 0,0 l/m 5,6 km/h (2 Bft) S-SO 150 0 min 114 W/m 2,7 C 3,3 C 9,7 km/h (2 Bft)
03.03.2016 10:48 3,4 C 97 % 997,4 hPa 0,0 l/m 7,2 km/h (2 Bft) S 175 0 min 181 W/m 3,0 C 2,7 C 11,3 km/h (2 Bft)
03.03.2016 10:51 3,6 C 96 % 997,4 hPa 0,0 l/m 6,4 km/h (2 Bft) S 171 0 min 213 W/m 3,0 C 3,6 C 11,3 km/h (2 Bft)
03.03.2016 10:54 3,7 C 96 % 997,4 hPa 0,0 l/m 7,9 km/h (2 Bft) S 183 0 min 176 W/m 3,1 C 2,3 C 12,9 km/h (3 Bft)
03.03.2016 10:57 3,8 C 96 % 997,4 hPa 0,0 l/m 6,9 km/h (2 Bft) SW 223 0 min 162 W/m 3,2 C 3,3 C 12,9 km/h (3 Bft)
03.03.2016 11:00 3,8 C 96 % 997,5 hPa 0,0 l/m 7,3 km/h (2 Bft) S-SW 210 0 min 125 W/m 3,2 C 3,0 C 16,1 km/h (3 Bft)
03.03.2016 11:03 3,8 C 95 % 997,5 hPa 0,0 l/m 7,4 km/h (2 Bft) S 171 0 min 127 W/m 3,1 C 2,9 C 12,9 km/h (3 Bft)
03.03.2016 11:06 3,8 C 95 % 997,5 hPa 0,0 l/m 5,9 km/h (2 Bft) S 186 0 min 93 W/m 3,1 C 3,8 C 11,3 km/h (2 Bft)
03.03.2016 11:09 3,8 C 95 % 997,5 hPa 0,0 l/m 5,3 km/h (1 Bft) S 180 0 min 98 W/m 3,1 C 3,8 C 9,7 km/h (2 Bft)
03.03.2016 11:12 3,8 C 95 % 997,5 hPa 0,0 l/m 5,7 km/h (2 Bft) S-SW 205 0 min 160 W/m 3,1 C 3,8 C 9,7 km/h (2 Bft)
03.03.2016 11:15 3,9 C 95 % 997,6 hPa 0,0 l/m 5,9 km/h (2 Bft) S 185 0 min 146 W/m 3,2 C 3,9 C 9,7 km/h (2 Bft)
03.03.2016 11:18 4,0 C 95 % 997,6 hPa 0,0 l/m 6,1 km/h (2 Bft) S-SO 167 0 min 130 W/m 3,3 C 4,0 C 9,7 km/h (2 Bft)
03.03.2016 11:21 4,0 C 94 % 997,6 hPa 0,0 l/m 5,9 km/h (2 Bft) SW 222 0 min 120 W/m 3,1 C 4,0 C 9,7 km/h (2 Bft)
03.03.2016 11:24 4,0 C 94 % 997,6 hPa 0,0 l/m 6,1 km/h (2 Bft) S-SW 192 0 min 125 W/m 3,1 C 4,0 C 11,3 km/h (2 Bft)
03.03.2016 11:27 4,1 C 94 % 997,7 hPa 0,0 l/m 4,3 km/h (1 Bft) S 186 0 min 160 W/m 3,2 C 4,1 C 8,0 km/h (2 Bft)
03.03.2016 11:30 4,2 C 94 % 997,7 hPa 0,0 l/m 4,8 km/h (1 Bft) SO 128 0 min 186 W/m 3,3 C 4,2 C 8,0 km/h (2 Bft)
03.03.2016 11:33 4,2 C 93 % 997,7 hPa 0,0 l/m 6,3 km/h (2 Bft) SO 145 0 min 160 W/m 3,2 C 4,2 C 11,3 km/h (2 Bft)
03.03.2016 11:36 4,2 C 93 % 997,7 hPa 0,0 l/m 5,0 km/h (1 Bft) SO 144 0 min 141 W/m 3,2 C 4,2 C 11,3 km/h (2 Bft)
03.03.2016 11:39 4,3 C 93 % 997,7 hPa 0,0 l/m 5,2 km/h (1 Bft) S-SW 208 0 min 176 W/m 3,3 C 4,3 C 11,3 km/h (2 Bft)
03.03.2016 11:42 4,3 C 92 % 997,7 hPa 0,0 l/m 6,2 km/h (2 Bft) S-SW 200 0 min 195 W/m 3,1 C 4,3 C 9,7 km/h (2 Bft)
03.03.2016 11:45 4,3 C 92 % 997,7 hPa 0,0 l/m 6,1 km/h (2 Bft) S-SO 148 0 min 146 W/m 3,1 C 4,3 C 11,3 km/h (2 Bft)
03.03.2016 11:48 4,4 C 92 % 997,8 hPa 0,0 l/m 5,2 km/h (1 Bft) S-SW 209 0 min 123 W/m 3,2 C 4,4 C 8,0 km/h (2 Bft)
03.03.2016 11:51 4,4 C 92 % 997,9 hPa 0,0 l/m 4,6 km/h (1 Bft) S 169 0 min 100 W/m 3,2 C 4,4 C 8,0 km/h (2 Bft)
03.03.2016 11:54 4,4 C 92 % 997,9 hPa 0,0 l/m 4,2 km/h (1 Bft) S-SW 196 0 min 83 W/m 3,2 C 4,4 C 8,0 km/h (2 Bft)
03.03.2016 11:57 4,4 C 92 % 998,0 hPa 0,0 l/m 3,9 km/h (1 Bft) S 180 0 min 86 W/m 3,2 C 4,4 C 9,7 km/h (2 Bft)
03.03.2016 12:00 4,4 C 92 % 998,0 hPa 0,0 l/m 5,1 km/h (1 Bft) S 171 0 min 102 W/m 3,2 C 4,4 C 9,7 km/h (2 Bft)
03.03.2016 12:03 4,4 C 92 % 998,0 hPa 0,0 l/m 4,8 km/h (1 Bft) S-SO 154 0 min 165 W/m 3,2 C 4,4 C 9,7 km/h (2 Bft)
03.03.2016 12:06 4,6 C 92 % 997,9 hPa 0,0 l/m 3,8 km/h (1 Bft) S-SO 157 3 min 265 W/m 3,4 C 4,6 C 8,0 km/h (2 Bft)
03.03.2016 12:09 4,8 C 92 % 997,9 hPa 0,0 l/m 3,7 km/h (1 Bft) S 175 3 min 258 W/m 3,6 C 4,8 C 9,7 km/h (2 Bft)
03.03.2016 12:12 5,0 C 90 % 997,9 hPa 0,0 l/m 6,1 km/h (2 Bft) S-SO 165 3 min 267 W/m 3,5 C 5,0 C 12,9 km/h (3 Bft)
03.03.2016 12:15 5,1 C 90 % 997,9 hPa 0,0 l/m 4,6 km/h (1 Bft) O-SO 107 0 min 207 W/m 3,6 C 5,1 C 8,0 km/h (2 Bft)
03.03.2016 12:18 5,1 C 89 % 997,9 hPa 0,0 l/m 7,2 km/h (2 Bft) S 171 3 min 288 W/m 3,4 C 4,4 C 12,9 km/h (3 Bft)
03.03.2016 12:21 5,1 C 89 % 998,0 hPa 0,0 l/m 7,5 km/h (2 Bft) S 179 0 min 153 W/m 3,4 C 4,1 C 9,7 km/h (2 Bft)
03.03.2016 12:24 5,0 C 89 % 998,0 hPa 0,0 l/m 7,1 km/h (2 Bft) S-SW 198 0 min 155 W/m 3,3 C 4,4 C 12,9 km/h (3 Bft)
03.03.2016 12:27 4,9 C 89 % 998,0 hPa 0,0 l/m 6,1 km/h (2 Bft) SW 218 0 min 165 W/m 3,2 C 4,9 C 12,9 km/h (3 Bft)
03.03.2016 12:30 4,9 C 88 % 998,0 hPa 0,0 l/m 7,7 km/h (2 Bft) SW 227 0 min 192 W/m 3,1 C 3,8 C 11,3 km/h (2 Bft)
03.03.2016 12:33 5,0 C 89 % 998,0 hPa 0,0 l/m 8,8 km/h (2 Bft) S-SW 204 3 min 615 W/m 3,3 C 3,0 C 14,5 km/h (3 Bft)
03.03.2016 12:36 5,3 C 87 % 998,0 hPa 0,0 l/m 6,2 km/h (2 Bft) SW 236 3 min 548 W/m 3,3 C 5,3 C 9,7 km/h (2 Bft)
03.03.2016 12:39 5,6 C 88 % 998,0 hPa 0,0 l/m 7,3 km/h (2 Bft) S-SO 157 3 min 547 W/m 3,8 C 4,8 C 12,9 km/h (3 Bft)
03.03.2016 12:42 5,8 C 86 % 998,0 hPa 0,0 l/m 8,9 km/h (2 Bft) W-SW 251 0 min 174 W/m 3,6 C 3,7 C 16,1 km/h (3 Bft)
03.03.2016 12:45 5,3 C 85 % 998,1 hPa 0,0 l/m 9,9 km/h (2 Bft) SW 235 0 min 120 W/m 3,0 C 2,5 C 16,1 km/h (3 Bft)
03.03.2016 12:48 5,0 C 86 % 998,0 hPa 0,0 l/m 11,4 km/h (2 Bft) SW 225 0 min 169 W/m 2,9 C 1,1 C 17,7 km/h (3 Bft)
03.03.2016 12:51 4,8 C 87 % 998,1 hPa 0,0 l/m 7,8 km/h (2 Bft) S-SW 212 0 min 227 W/m 2,8 C 3,6 C 14,5 km/h (3 Bft)
03.03.2016 12:54 5,0 C 89 % 998,1 hPa 0,0 l/m 7,1 km/h (2 Bft) S 179 3 min 320 W/m 3,3 C 4,4 C 9,7 km/h (2 Bft)
03.03.2016 12:57 5,3 C 88 % 998,1 hPa 0,0 l/m 7,3 km/h (2 Bft) SW 221 3 min 413 W/m 3,5 C 4,5 C 11,3 km/h (2 Bft)
03.03.2016 13:00 5,4 C 86 % 998,1 hPa 0,0 l/m 6,4 km/h (2 Bft) S 188 3 min 359 W/m 3,3 C 5,4 C 11,3 km/h (2 Bft)
03.03.2016 13:03 5,8 C 86 % 998,1 hPa 0,0 l/m 7,9 km/h (2 Bft) SW 230 3 min 538 W/m 3,6 C 4,5 C 12,9 km/h (3 Bft)
03.03.2016 13:06 5,8 C 84 % 998,1 hPa 0,0 l/m 6,5 km/h (2 Bft) S-SO 157 3 min 374 W/m 3,3 C 5,7 C 11,3 km/h (2 Bft)
03.03.2016 13:09 6,1 C 85 % 998,2 hPa 0,0 l/m 5,1 km/h (1 Bft) S-SW 209 3 min 306 W/m 3,8 C 6,1 C 8,0 km/h (2 Bft)
03.03.2016 13:12 5,9 C 83 % 998,2 hPa 0,0 l/m 6,9 km/h (2 Bft) S 180 3 min 285 W/m 3,2 C 5,5 C 14,5 km/h (3 Bft)
03.03.2016 13:15 5,9 C 85 % 998,3 hPa 0,0 l/m 5,9 km/h (2 Bft) SW 227 0 min 206 W/m 3,6 C 5,9 C 11,3 km/h (2 Bft)
03.03.2016 13:18 5,7 C 83 % 998,3 hPa 0,0 l/m 7,3 km/h (2 Bft) S-SW 204 0 min 179 W/m 3,0 C 4,9 C 14,5 km/h (3 Bft)
03.03.2016 13:21 5,6 C 83 % 998,3 hPa 0,0 l/m 5,9 km/h (2 Bft) SW 219 0 min 193 W/m 2,9 C 5,6 C 9,7 km/h (2 Bft)
03.03.2016 13:24 5,4 C 84 % 998,3 hPa 0,0 l/m 9,5 km/h (2 Bft) SW 219 0 min 221 W/m 2,9 C 2,9 C 16,1 km/h (3 Bft)
03.03.2016 13:27 5,3 C 84 % 998,3 hPa 0,0 l/m 9,1 km/h (2 Bft) W-SW 240 0 min 181 W/m 2,8 C 3,1 C 14,5 km/h (3 Bft)
03.03.2016 13:30 5,3 C 85 % 998,4 hPa 0,0 l/m 8,3 km/h (2 Bft) SW 222 0 min 165 W/m 3,0 C 3,7 C 12,9 km/h (3 Bft)
03.03.2016 13:33 5,4 C 85 % 998,5 hPa 0,0 l/m 6,2 km/h (2 Bft) SW 228 3 min 271 W/m 3,1 C 5,4 C 9,7 km/h (2 Bft)
03.03.2016 13:36 5,7 C 85 % 998,4 hPa 0,0 l/m 7,1 km/h (2 Bft) S 179 3 min 332 W/m 3,4 C 5,1 C 14,5 km/h (3 Bft)
03.03.2016 13:39 5,9 C 85 % 998,4 hPa 0,0 l/m 9,7 km/h (2 Bft) S-SW 209 3 min 271 W/m 3,6 C 3,3 C 17,7 km/h (3 Bft)
03.03.2016 13:42 5,8 C 81 % 998,4 hPa 0,0 l/m 11,2 km/h (2 Bft) SW 219 0 min 192 W/m 2,8 C 2,2 C 17,7 km/h (3 Bft)
03.03.2016 13:45 5,6 C 83 % 998,4 hPa 0,0 l/m 6,9 km/h (2 Bft) S-SW 200 0 min 132 W/m 2,9 C 5,2 C 11,3 km/h (2 Bft)
03.03.2016 13:48 5,5 C 83 % 998,4 hPa 0,0 l/m 4,6 km/h (1 Bft) S 175 0 min 111 W/m 2,8 C 5,5 C 9,7 km/h (2 Bft)
03.03.2016 13:51 5,5 C 84 % 998,5 hPa 0,0 l/m 8,0 km/h (2 Bft) SW 218 0 min 113 W/m 3,0 C 4,1 C 14,5 km/h (3 Bft)
03.03.2016 13:54 5,3 C 85 % 998,5 hPa 0,0 l/m 10,2 km/h (2 Bft) SW 220 0 min 95 W/m 3,0 C 2,3 C 16,1 km/h (3 Bft)
03.03.2016 13:57 5,2 C 85 % 998,5 hPa 0,0 l/m 10,8 km/h (2 Bft) SW 229 0 min 81 W/m 2,9 C 1,7 C 16,1 km/h (3 Bft)
03.03.2016 14:00 5,2 C 86 % 998,5 hPa 0,0 l/m 5,4 km/h (2 Bft) SW 217 0 min 90 W/m 3,1 C 5,2 C 8,0 km/h (2 Bft)
03.03.2016 14:03 5,2 C 86 % 998,6 hPa 0,0 l/m 10,0 km/h (2 Bft) SW 234 0 min 118 W/m 3,1 C 2,3 C 14,5 km/h (3 Bft)
03.03.2016 14:06 5,1 C 86 % 998,6 hPa 0,0 l/m 9,2 km/h (2 Bft) SW 220 0 min 158 W/m 3,0 C 2,8 C 16,1 km/h (3 Bft)
03.03.2016 14:09 5,1 C 85 % 998,7 hPa 0,0 l/m 12,1 km/h (2 Bft) S-SW 202 0 min 156 W/m 2,8 C 0,8 C 17,7 km/h (3 Bft)
03.03.2016 14:12 5,0 C 86 % 998,7 hPa 0,0 l/m 12,0 km/h (2 Bft) S-SW 211 0 min 107 W/m 2,9 C 0,8 C 16,1 km/h (3 Bft)
03.03.2016 14:15 4,9 C 86 % 998,6 hPa 0,0 l/m 10,4 km/h (2 Bft) W-SW 254 0 min 100 W/m 2,8 C 1,7 C 16,1 km/h (3 Bft)
03.03.2016 14:18 4,9 C 85 % 998,7 hPa 0,0 l/m 10,8 km/h (2 Bft) SW 230 0 min 91 W/m 2,6 C 1,4 C 19,3 km/h (3 Bft)
03.03.2016 14:21 4,9 C 85 % 998,6 hPa 0,0 l/m 12,3 km/h (2 Bft) S 169 0 min 88 W/m 2,6 C 0,5 C 17,7 km/h (3 Bft)
03.03.2016 14:24 4,9 C 85 % 998,7 hPa 0,0 l/m 9,4 km/h (2 Bft) S 169 0 min 70 W/m 2,6 C 2,4 C 16,1 km/h (3 Bft)
03.03.2016 14:27 4,8 C 84 % 998,7 hPa 0,0 l/m 13,1 km/h (3 Bft) SW 220 0 min 76 W/m 2,3 C -0,1 C 19,3 km/h (3 Bft)
03.03.2016 14:30 4,8 C 84 % 998,7 hPa 0,0 l/m 10,6 km/h (2 Bft) SW 227 0 min 95 W/m 2,3 C 1,4 C 17,7 km/h (3 Bft)
03.03.2016 14:33 4,8 C 83 % 998,7 hPa 0,0 l/m 8,9 km/h (2 Bft) S-SW 202 0 min 121 W/m 2,2 C 2,7 C 14,5 km/h (3 Bft)
03.03.2016 14:36 4,9 C 85 % 998,7 hPa 0,0 l/m 7,2 km/h (2 Bft) S 171 0 min 216 W/m 2,6 C 4,2 C 12,9 km/h (3 Bft)
03.03.2016 14:39 5,3 C 85 % 998,8 hPa 0,0 l/m 6,2 km/h (2 Bft) S-SO 164 3 min 236 W/m 3,0 C 5,3 C 11,3 km/h (2 Bft)
03.03.2016 14:42 5,6 C 83 % 998,8 hPa 0,0 l/m 9,4 km/h (2 Bft) S-SW 192 3 min 239 W/m 2,9 C 3,2 C 17,7 km/h (3 Bft)
03.03.2016 14:45 5,7 C 83 % 998,9 hPa 0,0 l/m 10,1 km/h (2 Bft) S-SW 212 3 min 253 W/m 3,0 C 2,8 C 14,5 km/h (3 Bft)
03.03.2016 14:48 5,9 C 82 % 998,9 hPa 0,0 l/m 8,6 km/h (2 Bft) S 178 3 min 454 W/m 3,1 C 4,1 C 14,5 km/h (3 Bft)
03.03.2016 14:51 6,2 C 78 % 998,9 hPa 0,0 l/m 8,6 km/h (2 Bft) S 180 3 min 429 W/m 2,7 C 4,4 C 12,9 km/h (3 Bft)
03.03.2016 14:54 6,3 C 76 % 998,9 hPa 0,0 l/m 10,6 km/h (2 Bft) SW 228 3 min 380 W/m 2,4 C 3,1 C 16,1 km/h (3 Bft)
03.03.2016 14:57 6,3 C 77 % 998,9 hPa 0,0 l/m 9,0 km/h (2 Bft) SW 228 3 min 364 W/m 2,6 C 4,2 C 14,5 km/h (3 Bft)
03.03.2016 15:00 6,0 C 78 % 999,0 hPa 0,0 l/m 9,5 km/h (2 Bft) SW 225 0 min 142 W/m 2,5 C 3,5 C 14,5 km/h (3 Bft)
03.03.2016 15:03 5,7 C 79 % 999,0 hPa 0,0 l/m 9,7 km/h (2 Bft) S-SW 202 0 min 125 W/m 2,3 C 3,1 C 14,5 km/h (3 Bft)
03.03.2016 15:06 5,6 C 80 % 999,0 hPa 0,0 l/m 8,5 km/h (2 Bft) W-SW 237 0 min 132 W/m 2,4 C 3,8 C 12,9 km/h (3 Bft)
03.03.2016 15:09 5,6 C 80 % 999,0 hPa 0,0 l/m 10,1 km/h (2 Bft) SW 217 3 min 334 W/m 2,4 C 2,7 C 16,1 km/h (3 Bft)
03.03.2016 15:12 5,8 C 81 % 999,1 hPa 0,0 l/m 9,0 km/h (2 Bft) S 186 0 min 181 W/m 2,8 C 3,7 C 16,1 km/h (3 Bft)
03.03.2016 15:15 5,8 C 80 % 999,1 hPa 0,0 l/m 7,9 km/h (2 Bft) S-SW 202 0 min 162 W/m 2,6 C 4,5 C 12,9 km/h (3 Bft)
03.03.2016 15:18 5,7 C 81 % 999,1 hPa 0,0 l/m 7,2 km/h (2 Bft) S 186 0 min 151 W/m 2,7 C 5,0 C 11,3 km/h (2 Bft)
03.03.2016 15:21 5,7 C 83 % 999,1 hPa 0,0 l/m 7,9 km/h (2 Bft) S-SW 202 0 min 137 W/m 3,0 C 4,4 C 12,9 km/h (3 Bft)
03.03.2016 15:24 5,6 C 82 % 999,1 hPa 0,0 l/m 6,3 km/h (2 Bft) W-SW 237 0 min 107 W/m 2,8 C 5,6 C 9,7 km/h (2 Bft)
03.03.2016 15:27 5,5 C 82 % 999,2 hPa 0,0 l/m 7,8 km/h (2 Bft) S 182 0 min 83 W/m 2,7 C 4,3 C 12,9 km/h (3 Bft)
03.03.2016 15:30 5,3 C 81 % 999,2 hPa 0,0 l/m 8,2 km/h (2 Bft) SW 230 0 min 69 W/m 2,3 C 3,8 C 14,5 km/h (3 Bft)
03.03.2016 15:33 5,3 C 82 % 999,2 hPa 0,0 l/m 6,7 km/h (2 Bft) S-SW 207 0 min 70 W/m 2,5 C 5,1 C 9,7 km/h (2 Bft)
03.03.2016 15:36 5,2 C 82 % 999,2 hPa 0,0 l/m 6,5 km/h (2 Bft) SW 215 0 min 70 W/m 2,4 C 5,1 C 9,7 km/h (2 Bft)
03.03.2016 15:39 5,2 C 82 % 999,2 hPa 0,0 l/m 7,1 km/h (2 Bft) S-SW 209 0 min 67 W/m 2,4 C 4,6 C 11,3 km/h (2 Bft)
03.03.2016 15:42 5,1 C 82 % 999,3 hPa 0,0 l/m 7,6 km/h (2 Bft) SW 223 0 min 56 W/m 2,3 C 4,0 C 11,3 km/h (2 Bft)
03.03.2016 15:45 5,1 C 83 % 999,3 hPa 0,0 l/m 6,2 km/h (2 Bft) SW 219 0 min 47 W/m 2,5 C 5,1 C 11,3 km/h (2 Bft)
03.03.2016 15:48 5,1 C 83 % 999,3 hPa 0,0 l/m 6,9 km/h (2 Bft) S-SW 207 0 min 44 W/m 2,5 C 4,7 C 11,3 km/h (2 Bft)
03.03.2016 15:51 5,1 C 84 % 999,4 hPa 0,0 l/m 5,7 km/h (2 Bft) W-SW 252 0 min 46 W/m 2,6 C 5,1 C 11,3 km/h (2 Bft)
03.03.2016 15:54 5,0 C 84 % 999,4 hPa 0,0 l/m 9,0 km/h (2 Bft) W-SW 247 0 min 46 W/m 2,5 C 2,8 C 16,1 km/h (3 Bft)
03.03.2016 15:57 5,0 C 84 % 999,4 hPa 0,0 l/m 8,1 km/h (2 Bft) S 183 0 min 44 W/m 2,5 C 3,5 C 14,5 km/h (3 Bft)
03.03.2016 16:00 5,0 C 85 % 999,4 hPa 0,0 l/m 7,8 km/h (2 Bft) S-SW 210 0 min 42 W/m 2,7 C 3,8 C 11,3 km/h (2 Bft)
03.03.2016 16:03 4,9 C 84 % 999,4 hPa 0,0 l/m 8,2 km/h (2 Bft) SW 229 0 min 37 W/m 2,4 C 3,3 C 16,1 km/h (3 Bft)
03.03.2016 16:06 4,9 C 85 % 999,5 hPa 0,0 l/m 9,1 km/h (2 Bft) SW 229 0 min 33 W/m 2,6 C 2,6 C 14,5 km/h (3 Bft)
03.03.2016 16:09 4,8 C 85 % 999,5 hPa 0,0 l/m 9,9 km/h (2 Bft) SW 217 0 min 26 W/m 2,5 C 1,9 C 14,5 km/h (3 Bft)
03.03.2016 16:12 4,8 C 85 % 999,6 hPa 0,0 l/m 9,1 km/h (2 Bft) SW 234 0 min 14 W/m 2,5 C 2,5 C 12,9 km/h (3 Bft)
03.03.2016 16:15 4,8 C 86 % 999,6 hPa 0,0 l/m 9,7 km/h (2 Bft) S-SW 202 0 min 18 W/m 2,7 C 2,1 C 14,5 km/h (3 Bft)
03.03.2016 16:18 4,7 C 86 % 999,6 hPa 0,0 l/m 8,1 km/h (2 Bft) S-SW 207 0 min 19 W/m 2,6 C 3,2 C 11,3 km/h (2 Bft)
03.03.2016 16:21 4,7 C 87 % 999,6 hPa 0,0 l/m 9,5 km/h (2 Bft) SW 225 0 min 16 W/m 2,7 C 2,1 C 16,1 km/h (3 Bft)
03.03.2016 16:24 4,6 C 87 % 999,6 hPa 0,0 l/m 8,8 km/h (2 Bft) SW 222 0 min 18 W/m 2,6 C 2,5 C 12,9 km/h (3 Bft)
03.03.2016 16:27 4,6 C 88 % 999,6 hPa 0,0 l/m 10,8 km/h (2 Bft) S-SW 213 0 min 19 W/m 2,8 C 1,1 C 19,3 km/h (3 Bft)
03.03.2016 16:30 4,6 C 88 % 999,6 hPa 0,0 l/m 12,7 km/h (3 Bft) S-SW 211 0 min 19 W/m 2,8 C -0,1 C 19,3 km/h (3 Bft)
03.03.2016 16:33 4,5 C 88 % 999,6 hPa 0,0 l/m 12,0 km/h (2 Bft) W-SW 241 0 min 19 W/m 2,7 C 0,2 C 16,1 km/h (3 Bft)
03.03.2016 16:36 4,5 C 89 % 999,7 hPa 0,0 l/m 12,0 km/h (2 Bft) SW 227 0 min 16 W/m 2,8 C 0,2 C 20,9 km/h (4 Bft)
03.03.2016 16:39 4,4 C 89 % 999,7 hPa 0,0 l/m 12,3 km/h (2 Bft) SW 221 0 min 16 W/m 2,7 C -0,1 C 19,3 km/h (3 Bft)
03.03.2016 16:42 4,3 C 89 % 999,7 hPa 0,0 l/m 12,0 km/h (2 Bft) SW 236 0 min 18 W/m 2,7 C -0,0 C 17,7 km/h (3 Bft)
03.03.2016 16:45 4,3 C 90 % 999,8 hPa 0,0 l/m 9,0 km/h (2 Bft) S-SW 195 0 min 23 W/m 2,8 C 2,1 C 14,5 km/h (3 Bft)
03.03.2016 16:48 4,3 C 90 % 999,7 hPa 0,0 l/m 10,2 km/h (2 Bft) S-SW 207 0 min 23 W/m 2,8 C 1,2 C 16,1 km/h (3 Bft)
03.03.2016 16:51 4,2 C 90 % 999,8 hPa 0,0 l/m 8,3 km/h (2 Bft) SW 217 0 min 28 W/m 2,7 C 2,5 C 11,3 km/h (2 Bft)
03.03.2016 16:54 4,2 C 90 % 999,8 hPa 0,0 l/m 8,6 km/h (2 Bft) S-SW 196 0 min 39 W/m 2,7 C 2,3 C 16,1 km/h (3 Bft)
03.03.2016 16:57 4,1 C 90 % 999,8 hPa 0,0 l/m 7,8 km/h (2 Bft) SW 236 0 min 51 W/m 2,6 C 2,8 C 12,9 km/h (3 Bft)
03.03.2016 17:00 4,1 C 90 % 999,8 hPa 0,0 l/m 8,2 km/h (2 Bft) SW 234 0 min 46 W/m 2,6 C 2,5 C 12,9 km/h (3 Bft)
03.03.2016 17:03 4,1 C 90 % 999,9 hPa 0,0 l/m 7,0 km/h (2 Bft) SW 236 0 min 35 W/m 2,6 C 3,6 C 11,3 km/h (2 Bft)
03.03.2016 17:06 4,1 C 90 % 999,9 hPa 0,0 l/m 7,7 km/h (2 Bft) W-SW 238 0 min 30 W/m 2,6 C 2,9 C 12,9 km/h (3 Bft)
03.03.2016 17:09 4,1 C 91 % 999,9 hPa 0,0 l/m 6,6 km/h (2 Bft) W-SW 246 0 min 23 W/m 2,8 C 3,9 C 14,5 km/h (3 Bft)
03.03.2016 17:12 4,1 C 91 % 999,9 hPa 0,0 l/m 7,6 km/h (2 Bft) W-SW 251 0 min 19 W/m 2,8 C 3,0 C 11,3 km/h (2 Bft)
03.03.2016 17:15 4,1 C 91 % 1000,0 hPa 0,0 l/m 5,8 km/h (2 Bft) SW 222 0 min 18 W/m 2,8 C 4,1 C 9,7 km/h (2 Bft)
03.03.2016 17:18 4,1 C 92 % 1000,0 hPa 0,0 l/m 7,1 km/h (2 Bft) SW 230 0 min 19 W/m 2,9 C 3,5 C 11,3 km/h (2 Bft)
03.03.2016 17:21 4,1 C 91 % 1000,0 hPa 0,0 l/m 7,0 km/h (2 Bft) S-SW 209 0 min 26 W/m 2,8 C 3,6 C 11,3 km/h (2 Bft)
03.03.2016 17:24 4,1 C 92 % 1000,0 hPa 0,0 l/m 5,2 km/h (1 Bft) SW 225 0 min 46 W/m 2,9 C 4,1 C 8,0 km/h (2 Bft)
03.03.2016 17:27 4,2 C 92 % 1000,1 hPa 0,0 l/m 6,1 km/h (2 Bft) SW 222 0 min 30 W/m 3,0 C 4,2 C 8,0 km/h (2 Bft)
03.03.2016 17:30 4,2 C 91 % 1000,1 hPa 0,0 l/m 6,2 km/h (2 Bft) SW 227 0 min 30 W/m 2,9 C 4,2 C 9,7 km/h (2 Bft)
03.03.2016 17:33 4,2 C 91 % 1000,2 hPa 0,0 l/m 7,5 km/h (2 Bft) SW 221 0 min 25 W/m 2,9 C 3,2 C 9,7 km/h (2 Bft)
03.03.2016 17:36 4,1 C 91 % 1000,2 hPa 0,0 l/m 4,8 km/h (1 Bft) S 189 0 min 21 W/m 2,8 C 4,1 C 8,0 km/h (2 Bft)
03.03.2016 17:39 4,1 C 90 % 1000,2 hPa 0,0 l/m 5,9 km/h (2 Bft) S-SW 202 0 min 16 W/m 2,6 C 4,1 C 9,7 km/h (2 Bft)
03.03.2016 17:42 4,1 C 90 % 1000,3 hPa 0,0 l/m 4,5 km/h (1 Bft) S-SW 207 0 min 14 W/m 2,6 C 4,1 C 8,0 km/h (2 Bft)
03.03.2016 17:45 4,1 C 89 % 1000,3 hPa 0,0 l/m 4,7 km/h (1 Bft) SW 221 0 min 12 W/m 2,5 C 4,1 C 8,0 km/h (2 Bft)
03.03.2016 17:48 4,1 C 89 % 1000,4 hPa 0,0 l/m 5,0 km/h (1 Bft) SW 234 0 min 14 W/m 2,5 C 4,1 C 9,7 km/h (2 Bft)
03.03.2016 17:51 4,1 C 89 % 1000,4 hPa 0,0 l/m 3,6 km/h (1 Bft) SW 218 3 min 18 W/m 2,5 C 4,1 C 6,4 km/h (2 Bft)
03.03.2016 17:54 4,1 C 89 % 1000,5 hPa 0,0 l/m 5,0 km/h (1 Bft) S-SW 204 0 min 7 W/m 2,5 C 4,1 C 8,0 km/h (2 Bft)
03.03.2016 17:57 4,1 C 89 % 1000,5 hPa 0,0 l/m 4,7 km/h (1 Bft) SW 214 0 min 5 W/m 2,5 C 4,1 C 9,7 km/h (2 Bft)
03.03.2016 18:00 4,1 C 89 % 1000,6 hPa 0,0 l/m 5,2 km/h (1 Bft) W-SW 248 0 min 7 W/m 2,5 C 4,1 C 8,0 km/h (2 Bft)
03.03.2016 18:03 4,0 C 89 % 1000,6 hPa 0,0 l/m 4,8 km/h (1 Bft) SW 218 0 min 5 W/m 2,4 C 4,0 C 8,0 km/h (2 Bft)
03.03.2016 18:06 3,9 C 89 % 1000,6 hPa 0,0 l/m 5,4 km/h (2 Bft) S-SW 198 0 min 0 W/m 2,3 C 3,9 C 8,0 km/h (2 Bft)
03.03.2016 18:09 3,8 C 89 % 1000,7 hPa 0,0 l/m 6,5 km/h (2 Bft) SW 226 0 min 0 W/m 2,2 C 3,7 C 9,7 km/h (2 Bft)
03.03.2016 18:12 3,7 C 89 % 1000,7 hPa 0,0 l/m 6,0 km/h (2 Bft) S-SW 212 0 min 0 W/m 2,1 C 3,7 C 9,7 km/h (2 Bft)
03.03.2016 18:15 3,7 C 89 % 1000,7 hPa 0,0 l/m 6,3 km/h (2 Bft) S-SW 204 0 min 0 W/m 2,1 C 3,7 C 11,3 km/h (2 Bft)
03.03.2016 18:18 3,6 C 90 % 1000,7 hPa 0,0 l/m 5,4 km/h (2 Bft) SW 217 0 min 0 W/m 2,1 C 3,6 C 8,0 km/h (2 Bft)
03.03.2016 18:21 3,4 C 90 % 1000,7 hPa 0,0 l/m 6,3 km/h (2 Bft) SW 219 0 min 0 W/m 1,9 C 3,4 C 9,7 km/h (2 Bft)
03.03.2016 18:24 3,4 C 90 % 1000,8 hPa 0,0 l/m 6,1 km/h (2 Bft) SW 221 0 min 0 W/m 1,9 C 3,4 C 8,0 km/h (2 Bft)
03.03.2016 18:27 3,3 C 91 % 1000,8 hPa 0,0 l/m 6,5 km/h (2 Bft) S-SW 211 0 min 0 W/m 2,0 C 3,2 C 9,7 km/h (2 Bft)
03.03.2016 18:30 3,3 C 91 % 1000,8 hPa 0,0 l/m 6,5 km/h (2 Bft) S-SW 213 0 min 0 W/m 2,0 C 3,2 C 9,7 km/h (2 Bft)
03.03.2016 18:33 3,2 C 91 % 1000,8 hPa 0,0 l/m 5,7 km/h (2 Bft) S-SW 196 0 min 0 W/m 1,9 C 3,2 C 9,7 km/h (2 Bft)
03.03.2016 18:36 3,1 C 91 % 1000,8 hPa 0,0 l/m 5,6 km/h (2 Bft) S-SW 209 0 min 0 W/m 1,8 C 3,1 C 8,0 km/h (2 Bft)
03.03.2016 18:39 3,0 C 92 % 1000,9 hPa 0,0 l/m 6,0 km/h (2 Bft) S-SW 201 0 min 0 W/m 1,8 C 3,0 C 9,7 km/h (2 Bft)
03.03.2016 18:42 2,9 C 92 % 1001,0 hPa 0,0 l/m 3,9 km/h (1 Bft) S-SW 207 0 min 0 W/m 1,7 C 2,9 C 6,4 km/h (2 Bft)
03.03.2016 18:45 2,9 C 92 % 1001,0 hPa 0,0 l/m 3,6 km/h (1 Bft) S-SW 209 0 min 0 W/m 1,7 C 2,9 C 4,8 km/h (1 Bft)
03.03.2016 18:48 2,8 C 92 % 1001,0 hPa 0,0 l/m 3,5 km/h (1 Bft) S-SW 205 0 min 0 W/m 1,6 C 2,8 C 6,4 km/h (2 Bft)
03.03.2016 18:51 2,8 C 92 % 1001,1 hPa 0,0 l/m 3,3 km/h (1 Bft) S 184 0 min 0 W/m 1,6 C 2,8 C 4,8 km/h (1 Bft)
03.03.2016 18:54 2,7 C 93 % 1001,1 hPa 0,0 l/m 2,6 km/h (1 Bft) S-SW 213 0 min 0 W/m 1,7 C 2,7 C 4,8 km/h (1 Bft)
03.03.2016 18:57 2,7 C 93 % 1001,1 hPa 0,0 l/m 2,8 km/h (1 Bft) S-SW 205 0 min 0 W/m 1,7 C 2,7 C 6,4 km/h (2 Bft)
03.03.2016 19:00 2,8 C 94 % 1001,1 hPa 0,0 l/m 2,2 km/h (1 Bft) S-SW 206 0 min 0 W/m 1,9 C 2,8 C 3,2 km/h (1 Bft)
03.03.2016 19:03 2,9 C 94 % 1001,2 hPa 0,0 l/m 3,3 km/h (1 Bft) S-SW 206 0 min 0 W/m 2,0 C 2,9 C 4,8 km/h (1 Bft)
03.03.2016 19:06 2,9 C 94 % 1001,2 hPa 0,0 l/m 4,6 km/h (1 Bft) S-SW 209 0 min 0 W/m 2,0 C 2,9 C 11,3 km/h (2 Bft)
03.03.2016 19:09 3,0 C 94 % 1001,1 hPa 0,0 l/m 3,9 km/h (1 Bft) SW 223 0 min 0 W/m 2,1 C 3,0 C 8,0 km/h (2 Bft)
03.03.2016 19:12 3,2 C 94 % 1001,1 hPa 0,0 l/m 4,1 km/h (1 Bft) S-SW 198 0 min 0 W/m 2,3 C 3,2 C 8,0 km/h (2 Bft)
03.03.2016 19:15 3,3 C 94 % 1001,2 hPa 0,0 l/m 4,6 km/h (1 Bft) S-SW 202 0 min 0 W/m 2,4 C 3,3 C 8,0 km/h (2 Bft)
03.03.2016 19:18 3,3 C 94 % 1001,2 hPa 0,0 l/m 5,2 km/h (1 Bft) S-SW 209 0 min 0 W/m 2,4 C 3,3 C 8,0 km/h (2 Bft)
03.03.2016 19:21 3,4 C 94 % 1001,2 hPa 0,0 l/m 5,9 km/h (2 Bft) SW 215 0 min 0 W/m 2,5 C 3,4 C 9,7 km/h (2 Bft)
03.03.2016 19:24 3,5 C 94 % 1001,2 hPa 0,0 l/m 4,6 km/h (1 Bft) S-SW 200 0 min 0 W/m 2,6 C 3,5 C 8,0 km/h (2 Bft)
03.03.2016 19:27 3,5 C 93 % 1001,2 hPa 0,0 l/m 4,2 km/h (1 Bft) S-SW 205 0 min 0 W/m 2,5 C 3,5 C 8,0 km/h (2 Bft)
03.03.2016 19:30 3,6 C 94 % 1001,3 hPa 0,0 l/m 5,2 km/h (1 Bft) S-SW 198 0 min 0 W/m 2,7 C 3,6 C 9,7 km/h (2 Bft)
03.03.2016 19:33 3,6 C 93 % 1001,3 hPa 0,0 l/m 5,2 km/h (1 Bft) SW 232 0 min 0 W/m 2,6 C 3,6 C 8,0 km/h (2 Bft)
03.03.2016 19:36 3,6 C 93 % 1001,3 hPa 0,0 l/m 5,5 km/h (2 Bft) SW 223 0 min 0 W/m 2,6 C 3,6 C 8,0 km/h (2 Bft)
03.03.2016 19:39 3,7 C 93 % 1001,3 hPa 0,0 l/m 6,4 km/h (2 Bft) SW 217 0 min 0 W/m 2,7 C 3,7 C 11,3 km/h (2 Bft)
03.03.2016 19:42 3,7 C 93 % 1001,4 hPa 0,0 l/m 7,8 km/h (2 Bft) SW 233 0 min 0 W/m 2,7 C 2,4 C 12,9 km/h (3 Bft)
03.03.2016 19:45 3,8 C 93 % 1001,4 hPa 0,0 l/m 7,5 km/h (2 Bft) S-SW 198 0 min 0 W/m 2,8 C 2,8 C 12,9 km/h (3 Bft)
03.03.2016 19:48 3,8 C 93 % 1001,4 hPa 0,0 l/m 6,6 km/h (2 Bft) SW 236 0 min 0 W/m 2,8 C 3,6 C 11,3 km/h (2 Bft)
03.03.2016 19:51 3,9 C 93 % 1001,4 hPa 0,0 l/m 6,7 km/h (2 Bft) SW 235 0 min 0 W/m 2,9 C 3,6 C 11,3 km/h (2 Bft)
03.03.2016 19:54 3,9 C 93 % 1001,4 hPa 0,0 l/m 6,4 km/h (2 Bft) W-SW 240 0 min 0 W/m 2,9 C 3,9 C 12,9 km/h (3 Bft)
03.03.2016 19:57 3,9 C 93 % 1001,4 hPa 0,0 l/m 4,8 km/h (1 Bft) SW 232 0 min 0 W/m 2,9 C 3,9 C 9,7 km/h (2 Bft)
03.03.2016 20:00 3,9 C 93 % 1001,4 hPa 0,0 l/m 5,1 km/h (1 Bft) SW 223 0 min 0 W/m 2,9 C 3,9 C 8,0 km/h (2 Bft)
03.03.2016 20:03 3,9 C 93 % 1001,5 hPa 0,0 l/m 3,6 km/h (1 Bft) SW 232 0 min 0 W/m 2,9 C 3,9 C 4,8 km/h (1 Bft)
03.03.2016 20:06 4,0 C 93 % 1001,5 hPa 0,0 l/m 3,2 km/h (1 Bft) SW 222 0 min 0 W/m 3,0 C 4,0 C 4,8 km/h (1 Bft)
03.03.2016 20:09 3,9 C 93 % 1001,5 hPa 0,0 l/m 1,6 km/h (1 Bft) SW 222 0 min 0 W/m 2,9 C 3,9 C 3,2 km/h (1 Bft)
03.03.2016 20:12 3,9 C 93 % 1001,5 hPa 0,0 l/m 2,7 km/h (1 Bft) SW 222 0 min 0 W/m 2,9 C 3,9 C 4,8 km/h (1 Bft)
03.03.2016 20:15 3,9 C 93 % 1001,5 hPa 0,0 l/m 3,7 km/h (1 Bft) W 275 0 min 0 W/m 2,9 C 3,9 C 6,4 km/h (2 Bft)
03.03.2016 20:18 3,9 C 93 % 1001,5 hPa 0,0 l/m 4,2 km/h (1 Bft) W-SW 252 0 min 0 W/m 2,9 C 3,9 C 9,7 km/h (2 Bft)
03.03.2016 20:21 3,9 C 93 % 1001,5 hPa 0,0 l/m 3,5 km/h (1 Bft) W-SW 248 0 min 0 W/m 2,9 C 3,9 C 8,0 km/h (2 Bft)
03.03.2016 20:24 3,9 C 94 % 1001,5 hPa 0,0 l/m 3,9 km/h (1 Bft) SW 232 0 min 0 W/m 3,0 C 3,9 C 8,0 km/h (2 Bft)
03.03.2016 20:27 3,9 C 94 % 1001,6 hPa 0,0 l/m 4,7 km/h (1 Bft) W-SW 258 0 min 0 W/m 3,0 C 3,9 C 8,0 km/h (2 Bft)
03.03.2016 20:30 3,9 C 94 % 1001,6 hPa 0,0 l/m 4,8 km/h (1 Bft) W-SW 248 0 min 0 W/m 3,0 C 3,9 C 11,3 km/h (2 Bft)
03.03.2016 20:33 3,9 C 94 % 1001,6 hPa 0,0 l/m 6,3 km/h (2 Bft) SW 231 0 min 0 W/m 3,0 C 3,9 C 16,1 km/h (3 Bft)
03.03.2016 20:36 4,0 C 94 % 1001,7 hPa 0,0 l/m 9,9 km/h (2 Bft) SW 234 0 min 0 W/m 3,1 C 1,0 C 14,5 km/h (3 Bft)
03.03.2016 20:39 4,0 C 94 % 1001,7 hPa 0,0 l/m 7,5 km/h (2 Bft) W-NW 283 0 min 0 W/m 3,1 C 3,0 C 12,9 km/h (3 Bft)
03.03.2016 20:42 3,9 C 93 % 1001,8 hPa 0,0 l/m 8,4 km/h (2 Bft) W 266 0 min 0 W/m 2,9 C 2,1 C 14,5 km/h (3 Bft)
03.03.2016 20:45 3,7 C 93 % 1001,8 hPa 0,0 l/m 10,8 km/h (2 Bft) W-SW 254 0 min 0 W/m 2,7 C 0,1 C 17,7 km/h (3 Bft)
03.03.2016 20:48 3,6 C 93 % 1001,7 hPa 0,0 l/m 7,4 km/h (2 Bft) W 260 0 min 0 W/m 2,6 C 2,7 C 16,1 km/h (3 Bft)
03.03.2016 20:51 3,3 C 93 % 1001,8 hPa 0,0 l/m 5,1 km/h (1 Bft) S-SW 213 0 min 0 W/m 2,3 C 3,3 C 8,0 km/h (2 Bft)
03.03.2016 20:54 3,3 C 93 % 1001,8 hPa 0,0 l/m 3,2 km/h (1 Bft) SW 225 0 min 0 W/m 2,3 C 3,3 C 6,4 km/h (2 Bft)
03.03.2016 20:57 3,4 C 94 % 1001,8 hPa 0,0 l/m 7,1 km/h (2 Bft) SW 223 0 min 0 W/m 2,5 C 2,7 C 11,3 km/h (2 Bft)
03.03.2016 21:00 3,5 C 94 % 1001,8 hPa 0,0 l/m 8,1 km/h (2 Bft) S-SW 202 0 min 0 W/m 2,6 C 1,9 C 11,3 km/h (2 Bft)
03.03.2016 21:03 3,6 C 95 % 1001,8 hPa 0,0 l/m 7,5 km/h (2 Bft) SW 227 0 min 0 W/m 2,9 C 2,6 C 11,3 km/h (2 Bft)
03.03.2016 21:06 3,6 C 95 % 1001,8 hPa 0,0 l/m 7,5 km/h (2 Bft) SW 223 0 min 0 W/m 2,9 C 2,6 C 9,7 km/h (2 Bft)
03.03.2016 21:09 3,6 C 95 % 1001,8 hPa 0,0 l/m 8,3 km/h (2 Bft) W-SW 241 0 min 0 W/m 2,9 C 1,9 C 12,9 km/h (3 Bft)
03.03.2016 21:12 3,6 C 95 % 1001,8 hPa 0,0 l/m 7,9 km/h (2 Bft) SW 233 0 min 0 W/m 2,9 C 2,2 C 12,9 km/h (3 Bft)
03.03.2016 21:15 3,5 C 95 % 1001,8 hPa 0,0 l/m 6,5 km/h (2 Bft) W-SW 240 0 min 0 W/m 2,8 C 3,4 C 9,7 km/h (2 Bft)
03.03.2016 21:18 3,4 C 95 % 1001,8 hPa 0,0 l/m 7,4 km/h (2 Bft) SW 234 0 min 0 W/m 2,7 C 2,5 C 11,3 km/h (2 Bft)
03.03.2016 21:21 3,4 C 95 % 1001,8 hPa 0,0 l/m 7,5 km/h (2 Bft) SW 214 0 min 0 W/m 2,7 C 2,4 C 12,9 km/h (3 Bft)
03.03.2016 21:24 3,3 C 95 % 1001,9 hPa 0,0 l/m 7,4 km/h (2 Bft) S-SW 192 0 min 0 W/m 2,6 C 2,4 C 9,7 km/h (2 Bft)
03.03.2016 21:27 3,3 C 95 % 1001,8 hPa 0,0 l/m 6,9 km/h (2 Bft) S-SW 204 0 min 0 W/m 2,6 C 2,8 C 11,3 km/h (2 Bft)
03.03.2016 21:30 3,3 C 95 % 1001,9 hPa 0,0 l/m 7,5 km/h (2 Bft) SW 214 0 min 0 W/m 2,6 C 2,3 C 12,9 km/h (3 Bft)
03.03.2016 21:33 3,3 C 95 % 1001,9 hPa 0,2 l/m 9,7 km/h (2 Bft) SW 228 0 min 0 W/m 2,6 C 0,4 C 12,9 km/h (3 Bft)
03.03.2016 21:36 3,4 C 95 % 1002,0 hPa 0,0 l/m 8,1 km/h (2 Bft) SW 219 0 min 0 W/m 2,7 C 1,8 C 16,1 km/h (3 Bft)
03.03.2016 21:39 3,4 C 95 % 1002,0 hPa 0,0 l/m 9,0 km/h (2 Bft) SW 221 0 min 0 W/m 2,7 C 1,1 C 16,1 km/h (3 Bft)
03.03.2016 21:42 3,4 C 95 % 1002,0 hPa 0,0 l/m 8,6 km/h (2 Bft) SW 224 0 min 0 W/m 2,7 C 1,4 C 12,9 km/h (3 Bft)
03.03.2016 21:45 3,4 C 95 % 1002,0 hPa 0,0 l/m 6,8 km/h (2 Bft) SW 220 0 min 0 W/m 2,7 C 3,0 C 12,9 km/h (3 Bft)
03.03.2016 21:48 3,4 C 95 % 1002,0 hPa 0,0 l/m 8,9 km/h (2 Bft) SW 215 0 min 0 W/m 2,7 C 1,2 C 11,3 km/h (2 Bft)
03.03.2016 21:51 3,4 C 95 % 1002,0 hPa 0,0 l/m 8,4 km/h (2 Bft) S-SW 213 0 min 0 W/m 2,7 C 1,6 C 11,3 km/h (2 Bft)
03.03.2016 21:54 3,4 C 96 % 1002,0 hPa 0,0 l/m 9,6 km/h (2 Bft) S-SW 213 0 min 0 W/m 2,8 C 0,6 C 16,1 km/h (3 Bft)
03.03.2016 21:57 3,4 C 96 % 1002,0 hPa 0,0 l/m 10,8 km/h (2 Bft) W-SW 243 0 min 0 W/m 2,8 C -0,3 C 16,1 km/h (3 Bft)
03.03.2016 22:00 3,4 C 96 % 1002,0 hPa 0,0 l/m 11,5 km/h (2 Bft) S-SW 210 0 min 0 W/m 2,8 C -0,8 C 16,1 km/h (3 Bft)
03.03.2016 22:03 3,4 C 95 % 1002,0 hPa 0,0 l/m 9,1 km/h (2 Bft) S-SW 210 0 min 0 W/m 2,7 C 1,0 C 12,9 km/h (3 Bft)
03.03.2016 22:06 3,4 C 95 % 1001,9 hPa 0,0 l/m 7,8 km/h (2 Bft) S-SW 207 0 min 0 W/m 2,7 C 2,1 C 11,3 km/h (2 Bft)
03.03.2016 22:09 3,4 C 95 % 1002,0 hPa 0,0 l/m 6,6 km/h (2 Bft) SW 216 0 min 0 W/m 2,7 C 3,2 C 11,3 km/h (2 Bft)
03.03.2016 22:12 3,4 C 95 % 1002,0 hPa 0,0 l/m 7,0 km/h (2 Bft) SW 214 0 min 0 W/m 2,7 C 2,8 C 11,3 km/h (2 Bft)
03.03.2016 22:15 3,4 C 95 % 1002,0 hPa 0,0 l/m 6,7 km/h (2 Bft) SW 217 0 min 0 W/m 2,7 C 3,1 C 9,7 km/h (2 Bft)
03.03.2016 22:18 3,3 C 95 % 1002,0 hPa 0,0 l/m 6,1 km/h (2 Bft) SW 215 0 min 0 W/m 2,6 C 3,3 C 8,0 km/h (2 Bft)
03.03.2016 22:21 3,2 C 95 % 1002,1 hPa 0,0 l/m 4,9 km/h (1 Bft) SW 225 0 min 0 W/m 2,5 C 3,2 C 6,4 km/h (2 Bft)
03.03.2016 22:24 3,1 C 95 % 1002,0 hPa 0,0 l/m 4,0 km/h (1 Bft) S-SW 207 0 min 0 W/m 2,4 C 3,1 C 6,4 km/h (2 Bft)
03.03.2016 22:27 2,9 C 95 % 1002,1 hPa 0,0 l/m 3,7 km/h (1 Bft) S 190 0 min 0 W/m 2,2 C 2,9 C 6,4 km/h (2 Bft)
03.03.2016 22:30 2,9 C 95 % 1002,1 hPa 0,0 l/m 4,1 km/h (1 Bft) SW 218 0 min 0 W/m 2,2 C 2,9 C 6,4 km/h (2 Bft)
03.03.2016 22:33 2,9 C 96 % 1002,1 hPa 0,0 l/m 4,6 km/h (1 Bft) S-SW 203 0 min 0 W/m 2,3 C 2,9 C 6,4 km/h (2 Bft)
03.03.2016 22:36 2,9 C 96 % 1002,2 hPa 0,0 l/m 4,1 km/h (1 Bft) S-SW 207 0 min 0 W/m 2,3 C 2,9 C 6,4 km/h (2 Bft)
03.03.2016 22:39 2,9 C 96 % 1002,2 hPa 0,0 l/m 3,4 km/h (1 Bft) S-SW 209 0 min 0 W/m 2,3 C 2,9 C 4,8 km/h (1 Bft)
03.03.2016 22:42 2,9 C 96 % 1002,1 hPa 0,0 l/m 3,2 km/h (1 Bft) S-SW 210 0 min 0 W/m 2,3 C 2,9 C 6,4 km/h (2 Bft)
03.03.2016 22:45 2,9 C 96 % 1002,1 hPa 0,0 l/m 2,3 km/h (1 Bft) S-SW 210 0 min 0 W/m 2,3 C 2,9 C 4,8 km/h (1 Bft)
03.03.2016 22:48 2,8 C 96 % 1002,1 hPa 0,0 l/m 2,5 km/h (1 Bft) S-SW 210 0 min 0 W/m 2,2 C 2,8 C 3,2 km/h (1 Bft)
03.03.2016 22:51 2,7 C 96 % 1002,1 hPa 0,0 l/m 2,4 km/h (1 Bft) S-SW 210 0 min 0 W/m 2,1 C 2,7 C 4,8 km/h (1 Bft)
03.03.2016 22:54 2,6 C 96 % 1002,1 hPa 0,0 l/m 2,6 km/h (1 Bft) S-SW 210 0 min 0 W/m 2,0 C 2,6 C 4,8 km/h (1 Bft)
03.03.2016 22:57 2,5 C 96 % 1002,1 hPa 0,0 l/m 1,7 km/h (1 Bft) S-SW 210 0 min 0 W/m 1,9 C 2,5 C 3,2 km/h (1 Bft)
03.03.2016 23:00 2,4 C 96 % 1002,2 hPa 0,0 l/m 2,9 km/h (1 Bft) S-SW 210 0 min 0 W/m 1,8 C 2,4 C 4,8 km/h (1 Bft)
03.03.2016 23:03 2,5 C 96 % 1002,1 hPa 0,0 l/m 3,1 km/h (1 Bft) S-SW 210 0 min 0 W/m 1,9 C 2,5 C 4,8 km/h (1 Bft)
03.03.2016 23:06 2,7 C 97 % 1002,2 hPa 0,0 l/m 5,2 km/h (1 Bft) SW 215 0 min 0 W/m 2,3 C 2,7 C 9,7 km/h (2 Bft)
03.03.2016 23:09 2,8 C 97 % 1002,2 hPa 0,0 l/m 5,6 km/h (2 Bft) SW 224 0 min 0 W/m 2,4 C 2,8 C 8,0 km/h (2 Bft)
03.03.2016 23:12 2,9 C 97 % 1002,2 hPa 0,0 l/m 5,0 km/h (1 Bft) S-SW 197 0 min 0 W/m 2,5 C 2,9 C 8,0 km/h (2 Bft)
03.03.2016 23:15 3,0 C 97 % 1002,2 hPa 0,0 l/m 4,8 km/h (1 Bft) SW 225 0 min 0 W/m 2,6 C 3,0 C 8,0 km/h (2 Bft)
03.03.2016 23:18 3,0 C 97 % 1002,2 hPa 0,0 l/m 4,2 km/h (1 Bft) S-SW 209 0 min 0 W/m 2,6 C 3,0 C 6,4 km/h (2 Bft)
03.03.2016 23:21 3,0 C 96 % 1002,1 hPa 0,0 l/m 2,9 km/h (1 Bft) S-SW 196 0 min 0 W/m 2,4 C 3,0 C 4,8 km/h (1 Bft)
03.03.2016 23:24 2,9 C 96 % 1002,2 hPa 0,0 l/m 3,6 km/h (1 Bft) SW 222 0 min 0 W/m 2,3 C 2,9 C 6,4 km/h (2 Bft)
03.03.2016 23:27 2,9 C 97 % 1002,2 hPa 0,0 l/m 7,4 km/h (2 Bft) SW 227 0 min 0 W/m 2,5 C 1,9 C 11,3 km/h (2 Bft)
03.03.2016 23:30 2,9 C 97 % 1002,2 hPa 0,0 l/m 6,1 km/h (2 Bft) SW 219 0 min 0 W/m 2,5 C 2,9 C 11,3 km/h (2 Bft)
03.03.2016 23:33 2,9 C 97 % 1002,2 hPa 0,0 l/m 7,0 km/h (2 Bft) S-SW 213 0 min 0 W/m 2,5 C 2,3 C 11,3 km/h (2 Bft)
03.03.2016 23:36 2,9 C 96 % 1002,2 hPa 0,0 l/m 7,8 km/h (2 Bft) SW 231 0 min 0 W/m 2,3 C 1,6 C 11,3 km/h (2 Bft)
03.03.2016 23:39 2,9 C 96 % 1002,2 hPa 0,0 l/m 7,7 km/h (2 Bft) SW 231 0 min 0 W/m 2,3 C 1,7 C 11,3 km/h (2 Bft)
03.03.2016 23:42 2,9 C 96 % 1002,2 hPa 0,0 l/m 8,6 km/h (2 Bft) S-SW 211 0 min 0 W/m 2,3 C 0,9 C 12,9 km/h (3 Bft)
03.03.2016 23:45 2,9 C 96 % 1002,2 hPa 0,0 l/m 8,6 km/h (2 Bft) SW 230 0 min 0 W/m 2,3 C 0,9 C 14,5 km/h (3 Bft)
03.03.2016 23:48 2,8 C 96 % 1002,2 hPa 0,0 l/m 7,9 km/h (2 Bft) W-SW 239 0 min 0 W/m 2,2 C 1,4 C 11,3 km/h (2 Bft)
03.03.2016 23:51 2,8 C 96 % 1002,2 hPa 0,0 l/m 8,1 km/h (2 Bft) SW 232 0 min 0 W/m 2,2 C 1,2 C 12,9 km/h (3 Bft)
03.03.2016 23:54 2,7 C 96 % 1002,2 hPa 0,0 l/m 8,9 km/h (2 Bft) W-SW 242 0 min 0 W/m 2,1 C 0,4 C 12,9 km/h (3 Bft)
03.03.2016 23:57 2,7 C 96 % 1002,2 hPa 0,0 l/m 9,6 km/h (2 Bft) SW 223 0 min 0 W/m 2,1 C -0,2 C 14,5 km/h (3 Bft)
_ Min-Zeit 02:57 14:54 00:42 - 20:09 - - - - 02:57 22:00 19:00
Minimum _ 1,3 C 76 % 994,3 hPa - 1,6 km/h (1 Bft) - - - - 0,7 C -0,8 C 3,2 km/h (1 Bft)
_ Max-Zeit 14:54 08:30 22:36 02:36 14:27 - - 12:06 12:33 12:39 13:09 16:36
Maximum _ 6,3 C 97 % 1002,2 hPa 0,2 l/m 13,1 km/h
SW (3 Bft)
- - 3 min 615 W/m 3,8 C 6,1 C 20,9 km/h
SW (4 Bft)
Durchschnitt _ 3,2 C 93 % 998,0 hPa #2,0 l/m 5,9 km/h (2 Bft) SW - #1:18 h 114 W/m 2,2 C 2,7 C 10,7 km/h (2 Bft)
2016 Cux-Wetter.de -Die Nutzung der Wetterdaten nur mit ausdrcklicher Genehmigung